GFSSE_850_dewp_000.txt.gz
Dewpoint
1 2 4 10 13 12 12 12 12 12 11 8 7 2 7 11 11 11 11 10 10 11 9 7 8 10 11 11 11 11 10 10 9 10 8 -0 3 9 10 4 3 10 5
-0 2 4 13 13 10 12 12 11 11 9 9 6 5 9 11 10 9 9 9 11 11 9 9 10 11 10 11 11 10 10 10 9 7 3 -2 -2 7 11 5 7 11 8
-2 1 4 12 11 12 12 11 11 10 10 9 5 11 10 10 10 11 9 10 10 11 5 8 9 10 10 11 10 10 9 10 9 5 1 3 9 6 8 6 9 10 10
-2 0 10 13 13 12 12 9 9 10 9 9 5 11 11 11 11 10 9 11 7 7 5 2 6 10 10 10 10 10 10 9 4 2 5 8 9 7 -0 -2 4 10 10
-1 0 5 13 12 11 11 11 11 9 8 6 5 10 11 11 11 11 10 10 6 5 4 1 -1 6 7 9 8 10 10 10 9 2 8 8 10 9 2 7 6 6 10
1 2 1 10 9 11 12 11 10 10 9 4 2 8 10 11 11 11 10 9 6 5 4 3 0 -0 2 4 4 8 10 9 9 9 7 8 6 10 5 1 9 -1 7
2 4 3 9 11 10 8 9 8 9 10 9 4 8 10 10 11 11 11 10 9 8 3 4 7 7 4 1 -2 -1 9 9 8 10 8 7 8 8 3 8 7 8 2
3 4 8 10 12 8 10 11 11 11 11 10 5 6 10 10 12 11 11 10 11 9 7 8 10 9 10 9 8 5 2 8 10 9 9 8 6 -1 2 9 7 9 8
2 4 7 12 10 11 12 12 12 11 12 11 9 3 6 10 11 10 10 10 10 10 9 5 9 9 10 9 10 8 7 7 8 8 9 9 7 -2 2 9 10 9 10
2 4 7 12 13 14 13 9 11 12 11 8 4 -1 -0 3 4 5 5 6 4 5 4 -1 -1 1 4 8 4 2 1 -1 3 8 8 8 0 -7 -2 1 5 9 9
-0 3 4 8 13 13 13 12 7 9 6 4 -0 -4 -5 6 7 -0 1 -0 -1 0 1 1 1 2 3 3 3 2 2 2 7 5 3 -4 -12 -12 -9 -6 -3 2 8
0 1 4 6 8 12 10 11 12 12 11 11 5 5 4 6 6 -2 -1 -0 1 2 3 4 4 4 4 8 9 8 8 9 8 7 4 1 -3 -10 -13 -11 -9 -8 -5
3 1 1 4 6 7 7 11 12 9 8 5 2 3 4 3 3 4 4 5 6 7 6 8 7 8 8 8 9 10 10 9 9 8 6 4 5 3 -1 -11 -12 -9 -9
2 4 3 2 3 5 6 5 7 6 4 5 4 3 4 5 5 6 7 8 9 10 10 10 11 11 10 10 10 10 10 10 10 9 7 4 4 5 5 4 -0 -9 -10
3 4 4 4 3 3 5 5 5 6 6 6 6 7 8 9 9 10 10 10 11 11 11 12 11 11 11 11 11 10 10 11 11 10 10 8 6 5 6 6 5 4 1
2 3 2 2 3 3 4 5 5 6 7 7 8 8 9 9 10 10 11 11 11 11 11 11 11 11 10 11 10 11 11 11 11 11 11 10 9 8 7 7 6 6 6
1 -1 -2 -2 -1 3 4 5 6 7 7 8 8 9 9 10 10 10 10 10 11 11 11 11 11 10 11 11 11 11 11 11 11 11 11 11 10 8 7 7 8 8 8
-2 -3 -4 -4 -1 1 5 6 7 7 8 8 9 9 10 10 10 10 10 11 10 10 10 10 10 10 10 10 10 10 10 10 10 10 10 10 10 9 8 7 7 7 7
-1 -2 -2 -0 1 4 6 7 7 7 8 9 9 9 9 9 9 9 9 8 6 6 7 6 8 7 6 8 9 8 9 9 9 10 10 10 9 8 8 8 8 8 7
-0 -2 -3 -3 1 4 6 7 7 8 9 9 9 9 9 7 5 3 2 1 -1 -2 -2 -1 2 3 4 5 5 5 7 7 7 8 8 9 10 10 10 10 8 9 8
-1 -2 -1 0 2 4 6 7 8 8 8 8 7 6 3 0 -2 -3 -3 -4 -5 -5 -5 -5 -1 0 1 1 2 2 2 3 4 4 9 7 4 7 8 9 10 10 10
-3 -3 -4 -3 -1 2 6 7 8 7 7 5 1 -1 -2 -2 -4 -5 -5 -4 -4 -4 -5 -6 -5 -3 -1 -0 0 0 0 1 0 2 0 2 3 3 6 9 9 9 9
-3 -3 -3 -3 -3 -1 2 4 4 3 1 -0 -1 -3 -5 -5 -4 -3 -3 -4 -6 -9 -12 -16 -12 -8 -3 -3 -2 -1 -0 0 1 -0 0 0 2 3 1 3 5 5 5
-2 -2 -2 -2 -2 -2 -1 -1 -1 -1 -2 -4 -5 -5 -4 -3 -2 -3 -5 -8 -13 -20 -27 -33 -33 -19 -5 -4 -4 -3 -2 -2 -0 0 -2 -1 -1 2 0 1 2 2 2
-2 -2 -2 -2 -2 -2 -3 -3 -4 -4 -5 -5 -4 -3 -2 -2 -4 -7 -11 -16 -24 -34 -37 -32 -27 -23 -9 -7 -6 -4 -3 -3 -3 -2 -1 -4 -4 -4 -4 -4 -2 1 1
-1 -1 -1 -1 -1 -2 -3 -4 -5 -5 -4 -3 -1 -1 -3 -5 -7 -8 -12 -22 -36 -34 -29 -26 -24 -23 -21 -20 -10 -6 -4 -4 -4 -6 -7 -6 -5 -6 -7 -5 -3 -1 0

GFSSE_850_dewp_003.txt.gz
Dewpoint
9 4 3 9 13 12 11 12 11 12 11 8 8 5 8 12 12 11 11 10 10 10 10 9 10 10 9 11 11 11 10 10 10 9 8 8 -1 3 11 10 1 11 10
6 8 3 10 11 11 11 13 11 11 10 9 6 6 11 12 11 11 10 9 10 11 9 10 11 11 10 10 11 10 9 9 10 8 6 2 2 2 10 8 3 11 10
10 12 5 12 13 10 12 13 11 10 10 8 5 11 10 10 10 8 9 9 10 10 4 7 10 10 10 10 10 10 10 9 7 6 3 -1 8 9 7 7 3 9 9
10 12 14 12 11 12 12 11 9 8 8 7 5 11 10 10 10 10 9 10 9 7 5 2 -1 5 9 9 9 10 10 9 8 4 -1 8 8 8 8 2 -2 8 10
10 11 13 12 13 13 12 10 10 8 7 4 4 10 10 11 11 10 10 11 9 8 5 4 -0 -5 -1 7 8 8 9 9 8 7 9 8 9 10 9 6 7 5 9
10 12 3 14 12 10 11 11 10 9 9 4 1 9 10 11 12 10 11 10 10 9 4 2 3 2 1 -1 1 2 8 10 9 9 10 8 5 5 10 6 -1 7 4
10 12 1 8 9 10 11 11 9 9 8 8 2 8 10 10 12 11 10 10 10 9 7 4 5 9 9 8 7 4 -0 2 8 9 9 9 7 7 6 -0 4 6 9
11 12 9 4 9 8 9 12 10 11 10 10 4 3 9 9 10 12 11 11 10 10 9 7 4 8 9 9 9 8 6 3 2 7 6 8 9 3 -5 -6 -1 7 8
11 9 12 6 9 10 12 12 12 11 11 10 7 2 1 10 11 11 9 9 7 7 7 1 -2 -2 1 4 4 -0 -1 -2 -3 -1 6 8 8 3 -10 -8 -5 4 8
10 9 12 13 13 12 13 9 10 11 11 8 5 -2 -4 1 5 4 5 4 1 -1 0 0 1 1 1 2 2 2 1 1 0 5 7 4 1 -10 -14 -13 -9 -6 -0
9 10 11 12 13 13 13 13 8 7 7 2 1 -2 -7 2 10 8 6 -2 -1 0 2 3 3 3 3 3 4 7 6 5 6 8 7 5 1 -2 -6 -13 -14 -11 -8
11 11 12 12 13 13 13 13 12 13 12 11 12 11 10 9 10 0 1 3 4 5 5 5 5 5 5 6 9 9 8 9 10 9 7 5 3 4 4 2 -4 -13 -13
8 10 9 12 13 13 13 13 13 12 12 11 11 11 11 8 10 10 10 9 7 8 8 10 10 11 11 11 10 10 10 10 10 9 8 7 5 4 5 5 5 3 -4
7 9 10 7 7 13 13 11 13 12 12 11 11 11 11 11 11 12 12 12 11 12 12 12 12 12 12 12 11 11 11 11 11 10 10 10 9 8 7 7 7 5 5
7 8 9 9 10 10 11 13 13 12 12 12 12 12 12 12 12 12 12 12 12 12 12 12 12 12 12 12 11 11 11 11 11 11 11 11 11 10 10 9 9 9 8
7 8 8 8 9 11 12 13 13 13 12 12 12 12 12 11 12 12 12 13 12 12 12 12 12 11 12 11 11 11 11 11 11 11 11 11 10 10 10 8 8 8 9
5 2 1 -0 5 11 12 13 13 13 12 13 13 12 12 12 12 12 12 12 11 11 11 11 10 10 10 9 9 9 10 10 10 10 10 10 10 10 10 10 9 8 8
3 1 -2 -2 -0 9 12 13 12 12 12 12 12 12 12 11 10 11 12 11 9 9 8 7 6 6 6 6 7 8 8 8 8 8 8 9 9 9 9 9 9 9 9
-0 -1 -1 2 6 10 12 12 12 11 11 12 12 11 10 9 8 7 4 0 2 3 2 1 1 2 2 2 3 4 2 4 6 5 6 8 8 8 9 9 8 7 7
5 2 2 5 9 11 11 11 12 10 8 7 7 6 4 1 -3 -4 -4 -4 -3 -0 1 -0 1 2 1 2 2 1 3 0 2 4 5 5 6 7 5 3 7 9 7
7 8 8 9 10 11 11 10 8 7 6 7 5 -1 -3 -4 -5 -5 -2 -2 -2 -3 -1 -3 -2 -4 -3 -1 -2 -1 -3 -0 -1 2 2 1 -1 1 2 2 4 8 8
5 5 6 8 10 9 8 8 7 6 4 -1 -2 -4 -5 -4 -2 -2 -3 -5 -7 -9 -7 -11 -10 -12 -6 -6 -4 -3 -2 -2 -2 -6 -3 -1 -2 1 3 1 2 3 3
-0 -2 -3 -1 1 4 5 4 3 2 2 -1 -5 -5 -3 -2 -2 -5 -7 -9 -11 -14 -19 -23 -13 -10 -6 -6 -6 -5 -4 -3 -3 -2 -4 -2 -2 -5 -1 1 -1 -2 -2
-2 -2 -3 -2 -1 2 3 2 2 -1 -4 -5 -4 -2 -1 -3 -5 -6 -8 -9 -14 -22 -27 -28 -18 -17 -8 -7 -8 -8 -6 -5 -4 -4 -5 -5 -6 -6 -8 -5 -5 -6 -7
-2 -2 -2 -2 -2 -2 -3 -4 -4 -4 -4 -3 -1 -2 -4 -4 -4 -6 -8 -11 -19 -28 -30 -27 -25 -22 -12 -7 -9 -8 -7 -6 -6 -7 -7 -8 -8 -8 -7 -7 -5 -6 -5
-1 -1 -1 -2 -2 -2 -2 -3 -3 -3 -2 -2 -2 -2 -2 -4 -5 -6 -8 -18 -28 -30 -29 -26 -24 -20 -13 -8 -10 -9 -10 -8 -6 -8 -8 -8 -6 -6 -4 -6 -5 -3 -4

GFSSE_850_dewp_006.txt.gz
Dewpoint
11 3 3 9 12 12 11 12 12 11 11 8 8 4 9 12 11 11 11 10 10 10 10 10 11 11 10 11 11 10 10 10 10 9 6 5 5 -3 3 12 3 11 11
5 2 2 10 12 12 12 12 11 11 11 9 5 4 11 11 10 10 10 9 9 10 6 10 11 11 11 11 10 10 10 10 9 6 5 3 -1 8 7 6 3 11 12
8 3 4 12 13 12 11 13 11 11 9 7 6 9 9 10 11 8 9 8 10 10 5 3 10 10 10 9 9 10 10 9 8 4 -2 2 7 8 8 7 3 6 9
9 7 5 12 12 11 13 12 9 8 8 7 5 11 10 10 10 10 10 9 8 7 4 2 1 0 4 8 10 10 10 10 8 7 -1 6 8 9 9 8 3 1 9
9 13 12 11 12 13 12 11 10 8 7 4 4 10 10 10 10 10 10 10 9 8 4 0 0 -3 -4 2 6 8 7 9 9 6 7 9 6 8 10 9 7 1 7
10 9 5 9 13 12 12 11 11 8 8 4 1 10 10 10 11 10 10 10 10 7 5 2 2 2 4 3 2 -1 -2 0 0 1 4 10 9 2 7 10 7 1 -2
11 10 3 1 8 9 10 11 10 8 8 8 1 10 10 10 10 11 10 10 10 5 4 2 -3 -2 3 6 6 5 -1 -5 -7 -9 -9 3 8 7 -0 -2 -7 -3 -5
11 9 2 -1 3 6 7 9 10 9 10 9 3 5 9 10 10 11 12 10 10 3 -1 -1 -2 -3 -2 0 -0 2 -2 -2 -3 -8 -8 -5 1 4 0 -8 -9 -9 -7
11 10 5 3 5 2 5 6 11 11 11 10 5 1 -1 7 10 11 10 6 -1 -2 -2 -1 -0 0 0 1 1 1 1 0 -0 -1 -4 -7 -6 -3 -8 -13 -13 -10 -8
12 11 11 6 7 5 6 5 6 8 10 8 2 -4 -5 2 4 2 2 -0 -1 -1 -0 1 1 2 2 2 3 3 4 5 4 3 2 2 1 -0 -2 -6 -14 -16 -13
10 12 13 13 13 11 11 12 11 4 2 -1 -2 -1 -5 4 8 6 5 0 1 2 3 4 4 4 5 5 6 7 7 7 6 6 6 6 6 5 4 3 2 -2 -11
9 9 12 13 13 13 13 12 10 7 8 7 7 8 8 9 9 8 4 5 5 6 6 7 7 8 8 8 8 9 9 9 9 9 9 9 8 8 7 5 5 5 5
6 10 11 12 13 13 13 12 13 12 11 12 12 11 11 8 9 9 9 10 8 8 9 10 10 11 11 11 11 11 11 11 11 11 11 10 10 10 10 10 10 9 8
6 9 10 11 11 13 13 12 13 12 12 12 11 11 11 11 11 12 12 11 12 12 12 12 12 12 12 12 11 11 11 11 11 11 11 11 11 11 11 11 11 11 10
6 8 9 9 11 12 14 13 13 12 12 12 11 12 12 12 12 12 12 12 12 12 12 11 11 11 10 10 10 10 10 10 10 11 11 11 11 11 10 10 10 11 10
7 8 9 9 11 12 13 13 13 13 12 12 12 12 12 12 11 12 12 12 11 11 11 10 10 9 9 9 8 8 9 8 8 8 9 9 8 10 10 9 8 8 9
6 7 7 9 10 12 12 13 13 13 13 13 12 12 12 12 12 12 11 11 10 9 8 8 3 2 2 3 4 4 6 6 6 5 6 4 6 8 8 8 8 9 8
4 3 1 0 5 10 12 13 13 12 12 12 12 12 12 11 11 11 9 4 3 2 0 -2 -1 -2 -2 -2 -0 1 1 1 -0 0 2 4 5 7 8 8 9 5 7
5 2 2 2 5 11 12 12 12 12 12 11 11 11 9 8 7 1 -4 -4 -3 -2 -2 -2 -3 -4 -5 -6 -2 -4 -4 -2 -2 1 2 4 4 4 5 3 2 2 4
6 5 5 7 10 12 12 12 11 11 11 10 8 6 1 -4 -5 -4 -3 -2 -3 -4 -5 -7 -8 -9 -11 -7 -12 -8 -12 -2 -6 -2 0 -1 -2 -6 -5 -5 -1 2 4
9 9 8 9 10 11 12 12 11 8 7 6 2 -3 -5 -4 -3 -2 -3 -5 -6 -8 -9 -12 -13 -16 -16 -16 -11 -15 -11 -10 -6 -7 -11 -11 -12 -5 -1 1 -2 -4 -4
9 9 10 11 11 11 10 8 7 6 2 -2 -4 -5 -3 -2 -3 -4 -5 -6 -7 -8 -11 -16 -18 -22 -19 -18 -11 -13 -6 -11 -9 -11 -4 -11 -3 -4 -8 -15 -12 -7 -6
5 4 7 8 8 8 7 7 4 -0 -2 -5 -4 -3 -2 -3 -3 -4 -6 -7 -8 -11 -15 -22 -23 -23 -22 -19 -18 -11 -8 -6 -8 -7 -12 -7 -16 -13 -15 -17 -12 -7 -11
3 2 2 3 4 4 3 2 -1 -4 -4 -4 -2 -2 -3 -3 -3 -3 -5 -7 -9 -14 -18 -21 -22 -23 -23 -21 -17 -18 -18 -11 -8 -8 -9 -10 -11 -11 -11 -8 -10 -4 -5
2 1 0 0 1 2 2 -2 -4 -4 -3 -2 -2 -2 -2 -2 -1 -3 -4 -6 -8 -12 -17 -22 -24 -24 -24 -19 -13 -13 -16 -13 -16 -10 -7 -9 -9 -10 -9 -8 -6 -10 -12
1 -1 -2 -2 -2 -3 -3 -3 -3 -3 -2 -2 -2 -1 -2 -2 -2 -2 -4 -6 -10 -15 -21 -24 -25 -25 -23 -18 -16 -15 -15 -11 -12 -10 -8 -9 -8 -9 -8 -8 -9 -11 -8

GFSSE_850_dewp_009.txt.gz
Dewpoint
10 4 5 10 13 13 12 12 11 11 10 9 6 3 8 11 11 11 11 10 10 9 10 11 11 11 10 10 11 10 10 10 9 9 6 2 6 -0 -0 4 4 8 9
8 2 3 11 13 12 12 12 11 11 10 8 2 5 12 11 10 10 10 9 9 7 3 10 10 11 10 11 10 10 10 10 9 6 1 0 -1 4 7 7 2 6 11
4 0 4 11 11 11 12 12 12 10 8 6 4 9 9 10 10 9 9 9 8 6 2 0 9 9 10 10 9 9 10 10 9 3 -4 3 7 7 8 8 6 3 6
5 2 5 11 13 11 12 12 9 6 5 4 6 10 10 10 10 10 10 9 7 5 2 -0 -1 1 0 3 4 6 9 7 3 4 -2 1 5 7 8 10 8 2 3
5 6 5 8 10 12 12 11 9 6 5 2 0 10 10 10 10 10 10 10 9 4 1 -3 -2 -3 -6 -7 -3 -2 2 2 -2 2 2 1 1 7 8 8 7 5 -3
5 5 5 8 9 10 10 10 8 6 4 -1 -2 9 10 10 11 10 10 10 10 5 -5 -7 -7 -7 -5 -1 1 1 0 -2 -6 -7 -7 2 4 5 3 6 -4 -0 -0
8 9 5 2 6 10 10 9 8 7 5 2 1 8 9 10 10 10 10 10 9 -0 -4 -3 -3 -3 -3 -2 -2 -1 -3 -5 -6 -8 -7 -6 0 5 5 7 1 -5 -7
9 9 5 0 4 8 8 8 6 7 8 6 -0 5 7 9 10 10 11 10 7 -2 -1 -1 -0 0 -0 0 0 1 1 1 0 -0 -1 -5 -6 -0 5 9 3 -4 -7
10 9 6 2 2 4 3 5 6 9 8 5 3 -1 -2 6 9 10 10 3 -1 -1 -0 1 1 2 2 2 2 3 3 4 5 5 3 2 2 1 0 10 6 -4 -11
11 9 8 6 5 3 4 4 5 6 6 5 0 -4 -5 2 3 -0 -1 -0 -0 0 2 3 4 5 5 6 6 6 7 7 7 7 6 7 6 6 6 7 10 7 4
10 9 9 10 9 8 9 10 10 7 3 2 -2 -1 -4 4 7 3 2 3 4 6 7 8 8 9 9 9 10 10 10 10 10 9 10 9 9 9 9 9 8 8 7
6 7 10 11 11 10 11 12 10 5 8 6 5 5 6 7 7 7 7 9 9 9 9 9 10 10 11 11 11 11 11 11 11 11 11 11 11 11 11 11 11 10 10
2 7 8 12 13 12 12 11 10 10 10 9 10 9 9 9 9 9 10 11 11 11 11 11 11 11 11 11 10 10 10 10 11 10 10 10 11 11 11 11 11 10 10
3 6 8 9 13 13 13 12 11 12 11 11 11 10 11 11 11 11 12 12 12 11 10 10 10 10 10 10 9 9 9 9 8 9 9 9 9 10 10 10 10 9 9
3 6 8 10 12 13 14 13 13 13 12 11 12 12 12 11 12 12 12 11 11 10 10 10 10 9 8 7 6 5 6 7 7 6 6 6 6 7 7 8 8 9 9
5 6 8 9 10 12 14 13 13 12 12 12 12 12 12 12 11 12 11 11 10 10 10 9 8 5 -1 -1 -1 -1 0 4 4 5 1 3 4 4 6 6 8 10 11
6 8 8 8 9 11 13 14 13 13 12 12 12 11 12 11 12 11 11 11 9 8 7 3 -2 -2 -2 -3 -4 -4 -3 -3 -3 -3 -2 1 3 4 4 3 3 4 4
6 8 8 9 10 11 12 13 13 12 12 11 12 11 11 11 11 10 10 5 -0 -3 -3 -2 -3 -5 -7 -8 -9 -9 -10 -9 -7 -1 0 1 2 1 1 -2 -1 -0 1
4 4 3 5 9 11 13 13 12 12 12 11 11 11 10 10 10 6 -4 -3 -2 -3 -5 -6 -8 -10 -11 -11 -12 -11 -12 -10 -2 -8 -8 -4 -2 -7 -8 -7 -3 -2 -1
4 3 4 3 9 11 13 12 11 11 11 10 10 9 3 -2 -4 -3 -3 -4 -5 -6 -7 -8 -10 -11 -13 -14 -12 -12 -12 -11 -14 -10 -14 -14 -17 -14 -10 -6 -3 -4 -2
7 7 8 8 11 12 12 12 11 11 11 10 5 -3 -4 -3 -3 -4 -5 -6 -8 -9 -9 -10 -11 -12 -13 -14 -14 -13 -14 -17 -11 -23 -25 -30 -25 -19 -16 -10 -14 -25 -29
9 9 10 11 12 12 12 12 11 10 6 0 -4 -4 -3 -3 -4 -4 -4 -4 -5 -7 -9 -12 -14 -16 -16 -19 -16 -15 -14 -18 -13 -20 -19 -24 -16 -16 -30 -31 -30 -24 -21
10 11 11 11 11 11 11 9 7 3 -2 -4 -4 -2 -3 -3 -3 -2 -2 -2 -4 -7 -10 -14 -17 -20 -19 -18 -20 -14 -11 -12 -15 -12 -24 -12 -23 -18 -24 -20 -21 -17 -9
10 11 11 11 11 10 7 6 2 -2 -4 -3 -2 -3 -3 -2 -1 -1 -1 -3 -5 -8 -12 -15 -19 -21 -22 -21 -23 -21 -15 -13 -12 -9 -14 -22 -15 -19 -19 -16 -16 -8 -9
6 9 8 7 6 5 2 -2 -4 -4 -3 -3 -3 -3 -2 -1 -1 -1 -2 -3 -6 -9 -12 -15 -18 -21 -23 -23 -21 -18 -17 -17 -18 -11 -10 -12 -12 -12 -16 -12 -11 -14 -12
4 4 3 2 3 3 1 -2 -4 -3 -3 -3 -2 -2 -1 -2 -1 -2 -3 -5 -8 -12 -15 -18 -21 -23 -25 -22 -19 -18 -16 -15 -16 -13 -13 -11 -9 -10 -10 -9 -11 -10 -10

GFSSE_850_dewp_015.txt.gz
Dewpoint
8 9 15 12 13 13 12 11 10 10 9 5 2 4 5 9 11 10 10 10 9 8 9 11 11 11 12 11 9 9 9 9 9 9 8 2 3 2 3 0 1 4 3
6 3 11 13 13 13 12 12 10 11 10 5 2 9 10 10 9 10 10 10 8 4 1 10 10 9 11 11 10 10 10 8 7 7 3 -1 1 1 1 2 6 2 8
4 0 4 14 14 13 12 12 11 11 9 3 2 12 11 10 10 8 10 6 2 -0 -2 2 6 6 9 9 9 9 7 7 6 4 4 -0 3 4 5 6 7 6 5
0 -2 2 10 13 13 12 12 12 11 4 2 2 9 9 10 10 10 8 7 7 1 -2 -3 -2 0 0 3 3 3 5 5 4 2 1 1 3 5 5 7 9 9 6
1 -0 3 7 12 11 11 11 10 6 3 2 9 10 11 10 10 9 7 8 9 3 -3 -4 -3 -2 -3 -3 -3 -1 -1 -2 -2 -3 -4 -2 2 4 5 11 10 10 8
3 1 2 7 9 10 10 8 8 5 3 1 4 10 10 10 10 10 10 9 8 1 -2 -1 -1 -2 -1 -0 -0 1 1 1 1 1 1 -2 -4 -1 6 7 9 9 9
4 3 3 6 9 8 9 8 8 5 1 -3 1 8 10 10 11 11 10 10 9 0 -0 1 1 1 1 2 2 3 3 3 5 7 7 6 3 -1 -0 4 10 10 10
6 6 5 5 7 8 8 9 9 5 3 -2 1 5 7 10 10 10 11 11 6 0 1 1 2 3 4 6 6 7 6 8 8 9 8 8 8 8 6 5 7 10 11
9 8 8 6 5 8 8 8 8 6 6 2 -1 1 3 7 9 10 10 3 1 1 3 5 6 8 9 9 10 10 10 11 11 10 10 10 10 10 10 10 9 9 10
10 10 9 7 4 6 6 6 6 7 7 3 1 -2 -2 5 8 4 0 2 4 6 8 8 9 9 10 11 11 11 11 11 11 10 10 10 10 10 10 10 10 10 10
10 10 10 8 4 5 5 5 7 7 6 5 1 -2 -2 2 2 3 4 7 8 9 10 11 10 11 10 10 10 10 10 10 10 9 10 9 9 10 10 10 10 11 10
9 9 10 9 6 6 5 7 10 10 6 5 2 -1 4 6 6 6 8 9 10 10 11 11 11 10 10 10 10 9 9 9 9 9 9 9 8 9 9 10 12 11 10
2 7 8 8 8 8 7 10 11 10 9 7 5 7 7 7 8 9 11 11 11 11 11 11 10 10 10 9 9 9 9 8 7 7 7 7 8 8 8 8 8 8 8
1 3 5 8 9 9 10 11 11 10 10 9 10 10 10 10 11 11 10 11 10 10 10 9 9 9 9 9 9 6 4 2 2 4 6 6 5 4 2 5 5 6 7
2 3 4 7 9 10 11 12 12 11 11 10 11 11 11 11 11 10 11 11 10 10 9 9 9 9 9 4 -1 -2 -2 -2 -2 -1 2 2 2 0 0 2 4 5 6
2 1 1 6 9 10 12 13 13 12 12 11 11 11 11 11 11 11 11 10 10 9 9 9 9 3 -1 -2 -3 -5 -7 -8 -8 -7 -6 -4 -2 -1 0 -0 0 1 1
2 1 -1 3 9 11 12 13 13 13 12 11 11 11 10 11 11 11 10 10 9 9 9 2 -2 -2 -4 -7 -8 -10 -11 -11 -11 -9 -6 -3 -1 -1 -0 -1 -2 -3 -3
1 1 0 4 9 11 13 13 12 12 11 11 11 11 11 10 10 10 10 9 9 -1 -3 -4 -6 -8 -10 -11 -11 -11 -11 -12 -11 -6 -5 -8 -11 -11 -11 -8 -7 -7 -8
0 2 1 7 10 12 13 13 13 12 11 11 11 11 10 10 10 10 9 1 -4 -6 -7 -8 -9 -10 -10 -11 -11 -12 -13 -13 -11 -10 -15 -26 -24 -28 -22 -13 -23 -28 -30
3 4 6 9 11 13 13 13 12 12 12 11 11 10 10 10 10 4 -3 -5 -5 -5 -5 -6 -8 -10 -11 -12 -12 -14 -16 -17 -12 -20 -12 -26 -26 -28 -23 -31 -31 -31 -32
3 6 8 11 12 11 12 13 12 12 12 11 10 10 9 6 -3 -4 -4 -3 -2 -2 -4 -7 -9 -11 -13 -13 -14 -14 -18 -21 -25 -18 -13 -25 -28 -28 -24 -31 -30 -31 -31
2 3 6 8 9 11 12 12 11 11 11 10 10 9 -2 -3 -4 -4 -2 -1 -1 -3 -6 -9 -11 -13 -16 -17 -18 -18 -21 -21 -22 -18 -25 -24 -26 -27 -29 -30 -31 -31 -31
2 3 4 5 6 11 13 12 11 10 10 10 9 -1 -3 -3 -3 -2 -1 -1 -2 -4 -8 -10 -13 -16 -18 -20 -22 -18 -19 -17 -20 -20 -23 -24 -24 -26 -27 -29 -30 -30 -29
4 5 7 6 8 12 12 11 11 10 9 9 2 -3 -3 -4 -2 -1 -1 -1 -2 -5 -9 -11 -15 -18 -20 -22 -23 -21 -19 -18 -17 -17 -20 -23 -24 -24 -27 -28 -28 -29 -29
7 7 8 8 12 12 12 11 10 10 10 5 -3 -3 -4 -2 -1 -1 -1 -2 -3 -6 -10 -13 -16 -19 -22 -24 -21 -19 -19 -19 -19 -16 -15 -19 -23 -25 -25 -25 -26 -28 -26
8 9 10 11 12 12 12 12 11 11 7 -3 -3 -4 -2 -1 -1 -1 -2 -2 -4 -8 -12 -14 -18 -23 -24 -22 -20 -19 -18 -18 -17 -16 -15 -15 -16 -19 -21 -25 -24 -24 -22

GFSSE_850_dewp_018.txt.gz
Dewpoint
6 6 15 14 14 14 13 12 10 9 8 5 3 3 7 9 10 10 10 9 8 5 10 11 11 13 13 11 11 9 9 9 9 8 8 6 0 3 4 5 2 -0 1
4 3 15 13 14 13 13 12 10 10 10 5 3 8 9 9 9 9 10 9 5 3 2 9 10 11 11 11 11 10 10 9 5 5 2 -1 -1 2 3 1 2 3 5
1 2 13 14 13 13 12 11 11 11 10 3 11 11 11 10 10 10 9 4 2 0 -1 4 6 6 10 10 9 9 7 5 3 5 1 0 2 3 4 7 6 7 4
-0 0 6 14 13 13 12 11 11 11 5 1 11 11 10 11 10 10 6 7 5 -1 -3 -3 -1 1 3 4 3 2 -0 2 -1 -2 -4 0 -0 2 2 5 8 10 8
-1 0 4 14 14 11 10 11 11 7 4 2 5 10 9 10 8 8 8 8 5 -2 -3 -4 -4 -3 -4 -4 -2 -2 -1 -2 -1 -1 -2 -5 -6 -1 2 7 10 10 9
-1 1 2 8 10 9 9 8 8 5 3 2 6 10 10 10 11 11 10 9 6 -1 -1 -1 -0 -0 -0 1 1 1 2 2 4 5 6 5 2 -3 -3 2 4 10 10
1 2 2 5 7 9 9 7 7 4 -0 -2 3 9 11 10 11 10 10 10 8 1 1 2 2 3 3 4 4 5 4 6 7 8 7 7 6 6 3 1 1 10 10
5 4 3 4 7 8 9 8 8 5 1 -4 1 7 10 10 10 10 10 10 6 2 2 4 5 6 8 8 8 9 10 10 10 10 10 10 9 10 9 9 8 7 10
9 8 6 4 4 8 8 9 9 6 4 -1 2 5 7 9 10 10 10 6 2 3 6 8 9 10 10 11 10 11 11 10 10 11 10 11 11 10 10 10 10 9 9
10 10 9 8 5 5 7 9 8 7 6 3 2 1 2 6 9 9 3 3 6 8 9 10 10 10 10 10 10 10 10 10 10 10 10 10 10 10 10 10 10 10 9
9 10 10 9 7 5 6 7 8 8 7 6 4 0 -1 3 5 4 5 8 9 9 10 11 10 10 10 10 9 9 9 9 9 9 9 8 9 8 9 10 11 11 11
7 8 9 10 9 6 7 6 7 9 7 6 3 -0 -1 3 5 7 8 9 10 10 11 11 11 10 10 10 9 9 9 9 9 8 8 8 7 8 8 8 8 9 9
4 6 7 8 9 8 7 6 8 11 9 7 4 4 5 6 7 9 10 11 11 10 10 10 9 8 9 9 9 9 8 5 3 3 4 5 6 5 5 5 6 7 7
3 5 7 8 9 9 9 8 10 11 9 7 6 8 8 9 10 11 10 10 10 10 10 9 8 8 9 10 8 4 0 -1 -2 -1 -0 0 3 4 3 4 5 3 4
3 3 3 5 8 10 10 11 12 11 11 10 10 11 11 11 11 11 10 10 10 9 8 9 9 9 8 4 -2 -3 -3 -5 -6 -6 -5 -3 -2 -1 -1 -1 1 1 3
2 3 3 2 6 9 10 12 12 12 12 11 11 11 11 10 10 10 10 10 9 9 8 9 8 1 -2 -3 -5 -7 -8 -10 -11 -11 -9 -6 -4 -2 -2 -1 -1 -1 -1
2 2 2 2 2 8 11 12 13 13 12 12 11 11 10 10 10 10 10 10 9 9 9 0 -3 -5 -7 -9 -10 -11 -11 -11 -12 -10 -8 -6 -6 -6 -5 -4 -4 -4 -4
2 2 1 2 0 7 11 13 13 12 12 11 11 10 10 11 10 10 9 9 9 2 -4 -6 -7 -8 -9 -10 -11 -11 -12 -13 -12 -10 -8 -13 -16 -17 -20 -18 -13 -13 -15
2 2 2 1 1 8 12 13 13 12 11 11 10 10 11 11 10 9 9 8 -3 -5 -5 -5 -6 -8 -10 -11 -11 -12 -13 -15 -14 -11 -9 -16 -26 -26 -29 -22 -24 -30 -31
2 1 -0 2 3 10 12 13 12 12 12 11 11 11 11 10 9 8 6 -4 -4 -3 -3 -5 -9 -10 -10 -11 -12 -13 -14 -17 -18 -11 -15 -17 -19 -24 -27 -26 -25 -29 -31
2 0 0 2 6 11 12 13 12 13 12 12 12 11 10 9 9 -1 -4 -4 -2 -2 -3 -7 -10 -10 -11 -12 -12 -13 -16 -20 -20 -22 -23 -12 -21 -24 -25 -27 -27 -29 -30
2 1 1 4 9 12 12 13 12 10 12 12 11 10 9 8 -3 -4 -3 -2 -1 -2 -3 -6 -9 -11 -12 -13 -16 -17 -20 -20 -22 -22 -22 -23 -23 -24 -24 -25 -26 -28 -29
1 2 2 6 11 12 13 13 12 11 12 11 10 9 9 -3 -4 -3 -1 -1 -1 -2 -3 -5 -9 -11 -13 -16 -21 -20 -20 -19 -20 -20 -22 -22 -22 -23 -25 -26 -26 -27 -28
1 2 3 5 9 12 13 13 11 10 10 9 8 8 0 -3 -3 -1 -1 -1 -1 -2 -3 -6 -10 -13 -16 -20 -22 -21 -19 -18 -18 -18 -19 -22 -23 -24 -24 -25 -25 -26 -26
2 2 4 5 6 8 12 13 10 10 9 8 8 4 -3 -3 -2 -1 -1 -1 -1 -2 -4 -7 -11 -15 -20 -23 -22 -20 -20 -19 -20 -17 -17 -21 -23 -23 -23 -23 -24 -24 -25
3 4 6 7 7 9 12 10 10 10 9 8 7 -2 -3 -3 -1 -1 -1 -2 -2 -3 -5 -9 -14 -20 -23 -22 -20 -19 -19 -19 -20 -18 -16 -16 -15 -18 -22 -23 -22 -23 -23

GFSSE_850_dewp_021.txt.gz
Dewpoint
5 9 14 14 13 12 12 11 7 7 6 5 2 4 9 10 10 10 10 9 9 7 9 11 13 13 12 11 11 10 9 9 9 6 3 3 -1 -1 2 5 5 2 1
3 7 15 14 13 13 12 11 8 9 10 4 1 5 7 10 10 10 10 8 3 5 10 9 11 12 12 11 11 9 8 8 5 3 2 -0 -3 -1 1 2 0 2 3
2 4 13 14 14 13 12 11 10 10 8 4 10 11 10 10 9 10 9 2 1 -2 -2 4 8 10 10 11 10 8 7 3 1 -0 -3 -1 -1 1 2 8 5 8 4
1 3 9 14 13 12 12 11 10 9 3 5 11 11 11 10 8 6 7 5 1 -2 -3 -2 1 2 7 7 6 3 0 -1 -3 -3 -5 -6 -1 -1 -0 1 8 8 9
1 4 9 14 13 12 11 10 10 6 2 -1 12 11 7 7 7 9 9 7 0 -2 -3 -3 -2 -2 -3 -3 -2 -1 -0 1 2 3 3 1 -3 -6 -3 2 9 10 10
0 4 9 15 14 11 9 9 8 4 2 0 8 10 10 10 10 11 10 9 4 0 1 1 1 1 1 2 3 4 6 4 6 7 7 6 4 1 -3 -2 2 4 9
0 5 8 15 14 9 8 7 7 4 1 -0 8 10 10 10 10 10 9 10 5 2 2 3 3 4 5 6 6 6 6 8 9 9 9 9 8 8 7 5 3 5 10
1 3 7 13 11 10 9 7 7 5 1 -2 5 10 10 10 10 10 10 9 4 3 4 5 7 8 9 10 10 10 10 10 10 10 10 10 10 9 10 9 9 9 7
5 5 5 7 10 10 9 8 7 5 1 -2 3 7 10 10 10 10 9 8 2 4 8 8 10 10 10 9 10 10 10 10 10 10 9 10 10 10 10 10 10 9 9
8 8 8 7 8 11 10 9 8 6 4 1 1 3 6 9 10 10 8 3 7 8 9 10 10 9 10 10 9 9 9 9 9 9 8 8 8 8 8 10 10 10 11
9 10 10 10 9 8 10 9 9 8 7 4 2 -0 0 5 8 6 3 8 9 9 10 11 10 10 9 10 10 9 9 9 9 9 9 8 8 8 8 7 8 9 10
7 9 10 11 10 9 8 9 8 8 7 6 3 1 -1 3 4 5 7 9 10 10 11 10 10 10 9 9 9 9 9 8 5 4 4 3 5 5 6 7 8 7 7
5 7 9 10 11 11 7 9 8 9 9 6 4 0 1 5 7 8 9 10 11 10 9 9 9 8 8 9 9 8 5 1 -1 -2 -2 -1 1 3 5 5 4 3 2
3 5 7 8 10 11 10 8 8 9 11 8 4 4 7 7 8 10 11 9 10 9 9 9 8 8 9 9 6 -1 -3 -3 -3 -4 -4 -4 -3 -0 1 3 2 1 3
3 3 3 5 6 9 10 9 9 10 11 9 6 8 9 10 10 10 10 10 9 9 8 8 8 9 5 -1 -3 -4 -6 -7 -8 -9 -10 -9 -7 -5 -4 -3 -2 -1 2
3 3 3 3 4 6 9 10 10 12 11 10 10 10 10 10 10 10 9 10 9 8 8 8 8 -1 -4 -6 -8 -10 -11 -12 -12 -11 -11 -9 -7 -5 -4 -2 -2 -1 -2
2 2 2 2 2 3 7 11 12 12 12 11 11 11 10 10 10 10 9 9 9 8 9 2 -4 -6 -8 -9 -10 -11 -12 -12 -12 -12 -10 -8 -7 -8 -11 -14 -13 -11 -9
2 2 2 2 2 2 5 11 12 13 12 11 11 10 10 10 10 10 9 9 9 8 -3 -5 -5 -6 -7 -10 -11 -12 -12 -13 -14 -12 -10 -11 -20 -24 -26 -27 -24 -22 -25
3 2 2 2 1 2 4 12 12 13 12 11 11 10 10 10 11 10 9 9 7 -4 -5 -4 -5 -9 -11 -12 -12 -12 -13 -14 -15 -13 -10 -10 -13 -19 -21 -25 -26 -25 -25
3 2 2 2 2 2 3 11 12 13 12 12 11 11 11 11 10 9 8 7 -4 -4 -3 -4 -7 -10 -12 -12 -12 -13 -14 -16 -18 -16 -8 -19 -19 -14 -20 -22 -24 -25 -25
3 3 2 2 1 2 5 11 12 13 12 12 11 11 11 11 9 9 6 -4 -4 -2 -2 -4 -6 -9 -11 -12 -13 -15 -16 -18 -19 -19 -20 -21 -22 -20 -23 -23 -23 -24 -25
3 3 2 2 3 4 7 10 12 12 12 11 12 11 10 10 9 5 -4 -4 -1 -1 -2 -3 -4 -7 -10 -12 -15 -18 -19 -19 -20 -20 -20 -21 -21 -22 -22 -23 -24 -24 -24
3 3 2 2 3 6 9 12 12 12 11 12 11 11 9 8 6 -3 -4 -1 -1 -1 -2 -2 -3 -7 -10 -14 -17 -19 -18 -16 -20 -20 -20 -20 -21 -22 -22 -22 -22 -22 -22
3 2 2 3 5 8 11 12 12 11 11 11 11 10 8 4 -3 -3 -2 -1 -1 -1 -2 -2 -4 -7 -11 -16 -19 -20 -20 -19 -16 -15 -19 -19 -21 -21 -21 -20 -21 -21 -22
3 2 2 3 6 10 12 13 13 11 11 11 10 7 6 1 -3 -3 -1 -1 -1 -1 -2 -3 -5 -9 -14 -18 -20 -20 -19 -20 -20 -18 -15 -18 -19 -19 -19 -20 -21 -21 -22
3 3 2 3 4 10 13 13 12 11 10 10 8 7 5 -3 -3 -2 -1 -1 -2 -2 -2 -4 -7 -12 -16 -19 -19 -19 -20 -20 -19 -17 -14 -14 -13 -15 -18 -20 -20 -22 -23

GFSSE_850_dewp_024.txt.gz
Dewpoint
5 11 15 13 13 11 9 9 6 6 6 4 4 9 10 11 10 9 10 9 9 8 9 11 13 9 10 12 11 10 9 8 7 6 1 -1 -1 -3 -2 1 5 9 4
3 14 14 14 12 10 11 9 6 8 8 4 1 6 9 10 11 10 10 6 5 6 7 11 12 13 13 12 12 10 9 8 6 0 -0 -2 -3 -2 -0 1 -0 9 0
5 15 15 14 13 13 11 9 8 9 3 6 8 8 9 10 10 10 9 1 -1 -0 5 3 10 11 11 11 11 9 8 4 0 -3 -4 5 5 -0 -0 2 5 3 4
9 15 15 15 14 13 11 10 9 7 2 11 12 10 10 9 8 6 5 2 -2 -3 -3 0 5 5 10 9 8 4 -1 -2 -3 -3 7 5 5 -1 -1 0 8 8 8
10 14 14 14 14 13 11 10 9 4 -0 11 12 10 6 6 8 9 8 5 -0 -1 -3 -3 -2 -3 -4 -4 -2 1 2 2 4 8 10 7 5 4 -5 1 8 10 11
13 14 11 14 13 13 11 10 9 3 -1 8 12 8 9 10 10 11 10 9 3 2 2 2 1 1 2 3 4 6 10 5 7 11 10 10 6 5 0 -3 2 7 7
13 14 9 14 14 14 10 9 7 3 0 2 8 9 10 10 10 11 10 9 4 3 3 3 3 4 7 8 8 8 8 9 10 11 11 10 9 8 8 8 6 5 6
11 13 13 15 15 13 10 8 7 4 -1 1 9 10 10 10 11 10 10 9 4 3 4 6 7 9 9 9 9 10 10 10 11 12 12 11 10 10 9 9 9 10 9
12 7 12 14 14 13 10 9 8 5 -1 -2 8 10 10 10 11 11 9 9 3 4 7 8 9 9 9 10 10 10 10 9 9 11 10 11 9 9 9 9 10 10 11
6 8 10 14 14 13 11 10 9 7 2 -2 3 8 10 10 10 10 8 5 5 8 9 9 9 10 10 10 10 9 9 9 10 10 10 9 8 8 8 8 7 9 10
8 7 9 14 14 14 14 10 10 8 6 2 0 2 5 10 9 10 5 4 8 9 9 10 10 10 9 9 9 9 9 9 7 6 7 4 4 5 7 7 8 7 6
10 9 10 13 14 14 13 12 11 10 7 6 2 -1 5 6 8 5 4 8 10 10 10 10 10 9 8 8 8 9 8 6 3 0 3 -1 0 4 5 5 4 4 5
12 12 9 10 13 14 13 13 13 12 12 12 8 2 -0 3 4 7 9 10 11 10 10 9 8 8 8 8 8 6 1 -3 -3 -3 -3 -3 -2 0 4 3 1 2 4
11 11 8 8 9 11 13 13 13 12 12 12 10 6 6 8 7 10 11 11 9 9 9 9 8 8 9 8 1 -3 -3 -4 -6 -7 -7 -8 -6 -5 -2 1 -1 -1 1
9 8 6 7 7 8 11 13 13 13 12 12 11 6 9 10 11 10 10 9 9 9 8 8 8 8 6 -3 -4 -6 -8 -10 -11 -12 -10 -10 -8 -7 -6 -4 -4 -3 -1
7 8 9 5 6 8 9 11 13 13 13 12 11 8 9 10 10 9 9 9 9 9 8 8 8 1 -5 -6 -8 -9 -10 -12 -12 -12 -11 -10 -8 -7 -6 -6 -6 -6 -4
3 4 7 6 7 7 10 13 13 13 13 12 12 11 10 10 10 9 9 9 9 8 8 8 -4 -6 -6 -7 -9 -11 -12 -12 -13 -13 -11 -9 -9 -10 -14 -20 -22 -22 -20
4 3 2 2 2 6 12 13 14 13 13 13 12 10 10 10 9 9 10 9 9 8 7 -4 -4 -5 -9 -11 -12 -12 -13 -13 -14 -14 -12 -11 -14 -19 -22 -23 -23 -25 -26
3 3 2 2 2 3 10 13 14 13 13 12 11 10 10 9 10 10 10 9 8 6 -4 -4 -5 -7 -10 -12 -13 -13 -13 -13 -13 -13 -11 -10 -10 -12 -16 -16 -18 -23 -25
2 1 3 2 2 2 9 13 13 13 13 12 11 11 10 10 10 10 9 8 8 -4 -4 -3 -5 -6 -8 -11 -13 -14 -15 -16 -16 -13 -11 -9 -19 -21 -19 -17 -21 -23 -23
2 0 3 2 2 2 8 10 12 12 13 12 12 11 10 11 11 9 8 8 -3 -3 -2 -3 -3 -4 -6 -9 -13 -12 -15 -18 -18 -14 -18 -16 -19 -20 -21 -21 -22 -23 -23
4 3 3 3 2 3 7 7 11 12 11 12 13 12 11 11 11 8 8 -2 -3 -1 -1 -1 -2 -3 -5 -8 -14 -12 -11 -12 -13 -17 -16 -20 -17 -20 -20 -21 -21 -20 -20
3 4 3 3 3 3 5 10 11 12 12 13 13 12 11 10 9 5 -1 -3 -2 -1 -1 -1 -1 -3 -6 -9 -14 -16 -13 -12 -13 -14 -15 -17 -19 -16 -18 -19 -19 -20 -20
2 1 3 3 3 4 5 6 8 10 12 12 12 12 10 9 3 0 -3 -3 -1 -1 -1 -1 -1 -3 -6 -11 -15 -17 -18 -18 -14 -14 -13 -13 -13 -14 -14 -15 -18 -20 -21
1 1 3 3 4 4 4 7 11 12 12 12 11 11 10 6 -1 -3 -3 -1 -1 -1 -1 -1 -2 -4 -7 -12 -16 -18 -17 -15 -13 -12 -13 -13 -13 -13 -12 -12 -12 -14 -13
2 0 3 3 4 5 7 9 12 13 12 11 10 10 9 3 -2 -3 -2 -1 -1 -1 -1 -2 -3 -5 -9 -14 -17 -18 -18 -15 -14 -14 -14 -13 -13 -12 -12 -12 -13 -13 -13

GFSSE_850_dewp_027.txt.gz
Dewpoint
12 9 13 13 12 10 10 10 10 10 10 8 9 11 11 11 10 9 9 9 9 9 8 10 12 10 12 12 11 11 10 9 8 7 5 -1 -4 -5 -3 -1 1 10 11
12 11 14 13 12 10 8 6 5 7 7 5 3 7 9 11 11 10 10 5 4 8 8 8 13 13 13 12 12 10 10 8 6 -0 -3 -4 3 -3 -2 0 -0 9 8
14 15 12 13 10 10 10 8 7 8 2 -1 5 10 10 10 10 10 8 0 -2 3 7 7 11 11 11 11 11 10 7 3 -3 -5 -0 6 8 4 0 1 3 4 4
14 15 14 14 13 11 11 10 9 5 6 11 11 9 10 9 9 4 2 -2 -4 -4 -3 -0 6 8 9 8 9 4 -2 -3 -2 2 9 8 7 5 -3 -1 1 10 9
14 15 15 14 14 13 11 10 9 2 6 12 12 10 5 5 7 8 6 2 -1 -3 -5 -4 -2 -3 -2 -2 -3 -1 1 2 5 10 11 11 6 10 -1 -5 -0 8 10
14 14 15 14 14 13 12 10 8 1 2 12 10 4 7 9 10 9 8 5 1 1 1 0 0 1 2 3 3 4 4 6 8 11 11 11 11 8 7 2 -1 -0 2
13 15 13 14 14 13 12 9 7 1 -2 10 10 7 9 10 10 10 10 8 3 2 3 3 3 5 7 8 9 9 9 9 9 11 11 11 11 9 9 8 8 9 8
13 14 14 14 14 13 11 9 6 2 -2 3 8 9 10 10 11 10 10 9 4 3 5 7 8 8 9 9 9 10 10 9 9 11 11 11 11 9 9 10 10 10 11
13 14 15 14 14 13 11 9 8 4 -2 5 8 10 10 10 11 10 10 9 3 4 7 9 9 9 10 10 10 9 8 8 9 10 10 10 9 7 7 9 9 8 9
13 13 14 16 14 12 12 10 9 6 -1 -0 8 9 10 10 11 11 9 7 3 7 8 9 10 10 10 9 9 8 8 8 9 9 9 9 6 6 6 6 5 6 6
13 13 13 14 15 14 13 10 9 7 2 -1 3 6 9 11 10 10 9 4 6 8 9 10 10 10 9 8 8 8 7 7 6 6 6 3 0 2 6 4 3 5 7
12 13 13 13 14 14 14 13 11 10 6 3 1 1 5 11 11 11 4 4 8 9 9 9 9 9 8 7 6 6 4 1 2 1 3 -2 -2 2 7 2 1 4 5
12 12 13 13 13 14 14 14 13 13 12 11 10 9 9 9 7 6 4 6 9 10 9 9 9 8 8 8 8 1 -3 -3 -3 -1 0 -4 -5 1 4 0 -1 3 3
10 12 13 14 14 14 15 14 13 12 12 12 12 10 9 8 8 9 10 11 10 9 9 9 8 8 8 7 -2 -4 -5 -6 -8 -4 -2 -7 -9 -6 -3 -4 -5 -2 -3
9 11 12 13 14 14 14 14 13 12 12 12 12 11 8 9 10 10 11 9 9 9 9 8 8 8 7 -3 -5 -7 -9 -7 -9 -7 -4 -9 -10 -9 -7 -7 -7 -5 -4
7 9 11 13 14 14 14 14 13 12 12 12 12 11 10 10 10 11 9 9 9 9 8 8 8 7 -4 -6 -7 -9 -11 -10 -11 -10 -6 -8 -10 -10 -8 -8 -8 -11 -15
3 6 8 11 13 14 14 13 13 13 12 13 12 11 11 11 11 9 9 9 9 9 8 8 6 -5 -6 -9 -11 -12 -13 -12 -12 -10 -9 -6 -10 -11 -13 -19 -24 -26 -26
4 3 4 8 11 13 13 13 13 13 12 13 12 11 11 11 10 9 9 9 8 8 8 7 -4 -5 -8 -10 -12 -11 -11 -11 -12 -11 -11 -11 -11 -12 -13 -14 -16 -18 -19
3 4 4 4 7 10 12 13 13 13 12 12 12 12 12 10 9 9 9 9 8 8 8 -4 -4 -6 -6 -9 -11 -13 -13 -13 -8 -10 -9 -10 -11 -11 -15 -19 -20 -19 -19
1 3 3 4 4 6 10 12 12 13 12 13 13 12 10 10 9 9 10 9 8 8 -3 -3 -3 -3 -4 -6 -9 -12 -13 -15 -11 -11 -8 -9 -10 -15 -19 -21 -20 -19 -20
1 2 3 3 4 6 8 11 12 12 12 13 13 11 10 10 9 10 10 9 8 -0 -4 -2 -2 -2 -3 -4 -8 -10 -9 -11 -14 -8 -6 -10 -11 -14 -14 -14 -15 -18 -19
2 3 3 3 5 6 8 10 13 13 13 13 12 11 11 10 10 11 10 8 5 -4 -2 -1 -1 -1 -2 -4 -8 -10 -9 -10 -10 -13 -11 -12 -14 -14 -12 -14 -17 -17 -18
2 2 3 3 5 7 9 12 13 13 13 12 12 12 11 11 11 11 9 7 -3 -3 -1 -1 -1 -1 -3 -4 -8 -12 -12 -10 -12 -12 -13 -11 -14 -12 -13 -14 -14 -15 -16
-1 2 3 4 6 8 10 12 9 7 9 11 12 12 12 11 11 10 6 -0 -3 -1 -1 -1 -1 -1 -2 -5 -9 -11 -15 -16 -12 -12 -12 -12 -12 -13 -12 -12 -13 -15 -17
-4 0 3 5 8 10 10 11 10 9 9 11 12 12 12 11 10 9 2 -3 -2 -1 -1 -1 -1 -1 -2 -6 -10 -14 -14 -13 -12 -12 -11 -12 -13 -12 -12 -12 -12 -12 -13
-3 -1 3 6 9 11 10 10 9 8 9 11 12 11 11 10 9 8 -3 -3 -2 -1 -1 -1 -1 -2 -3 -6 -11 -15 -16 -14 -14 -12 -12 -13 -12 -12 -12 -12 -12 -14 -12

GFSSE_850_dewp_030.txt.gz
Dewpoint
11 7 8 7 8 9 8 10 11 11 11 11 11 12 12 11 10 9 9 8 9 9 7 12 9 11 12 12 10 10 10 9 8 6 3 -2 -4 -7 -6 -4 1 11 11
7 8 9 5 7 5 5 4 4 4 4 4 4 9 10 11 10 9 9 -1 4 8 6 10 12 13 13 13 11 10 9 6 1 -5 -4 3 5 2 -2 -2 -1 6 8
9 8 8 5 6 6 5 5 6 5 0 -1 9 9 11 11 10 9 -0 -3 -0 6 6 7 11 11 10 10 11 9 4 -3 -5 3 7 6 6 5 -1 -2 -1 5 3
12 9 9 6 6 8 8 8 8 1 5 7 12 10 10 10 9 3 -3 -5 -5 -5 -1 1 8 10 10 8 6 -0 -5 -2 5 9 10 8 8 9 2 -6 -1 8 10
16 10 9 10 8 9 8 8 6 2 12 12 10 8 3 5 3 2 1 -1 -3 -6 -5 -3 -2 -5 -4 -4 -4 -1 1 4 9 11 11 10 9 8 6 0 -3 1 8
15 15 12 11 12 12 9 8 4 -1 11 12 7 3 7 8 8 7 5 1 0 -0 -1 -1 -1 0 2 3 3 5 6 7 11 11 11 11 11 9 8 8 8 7 6
14 15 15 11 14 12 11 8 3 -2 9 12 4 5 8 9 9 9 7 3 2 2 2 2 3 5 6 7 8 9 9 9 11 10 10 10 10 10 9 9 9 10 11
14 15 14 12 13 12 10 7 2 -2 -2 9 8 7 8 9 10 10 8 4 1 2 3 5 6 8 8 9 10 9 8 7 9 10 10 10 10 9 7 9 9 9 9
14 14 11 12 10 11 8 5 3 -2 -3 3 6 8 9 10 10 9 8 6 1 4 5 7 8 9 10 10 9 8 8 8 10 10 9 10 10 7 6 5 9 10 9
14 14 12 12 10 11 9 6 4 1 -3 3 6 9 9 10 11 10 9 5 1 5 7 8 9 9 9 7 8 8 7 8 8 8 9 8 5 2 3 1 2 4 4
13 13 14 12 13 13 11 7 5 3 -2 -1 4 7 9 10 10 10 7 3 4 6 8 9 9 9 8 7 7 7 5 5 4 5 3 2 -1 5 6 1 1 6 4
13 13 14 14 13 14 13 9 8 6 2 -2 0 4 8 11 11 10 9 3 6 8 8 9 9 8 8 7 8 7 2 -2 1 -0 -2 -0 -2 3 4 0 1 3 2
12 13 13 14 14 14 13 13 11 7 6 2 -1 -0 5 11 11 10 6 4 7 8 9 9 8 8 8 8 8 1 -4 -5 -4 -3 -4 -4 -5 1 1 -3 -2 -1 -2
11 12 13 13 13 14 13 14 12 11 11 10 9 7 4 9 8 8 8 10 10 10 9 9 7 8 7 6 -3 -5 -7 -8 -8 -8 -8 -8 -9 -8 -5 -7 -6 -6 -6
10 11 12 13 13 14 13 13 13 13 12 12 12 10 9 8 6 9 11 11 10 9 9 8 8 8 7 -2 -6 -7 -8 -9 -8 -8 -9 -10 -9 -10 -9 -8 -8 -7 -7
7 10 11 13 14 14 14 13 12 13 12 12 12 11 9 8 9 10 10 10 9 9 9 8 8 8 -1 -6 -8 -12 -13 -13 -12 -10 -11 -10 -11 -11 -10 -10 -10 -15 -23
4 7 10 12 13 14 15 13 13 13 12 12 12 12 9 10 10 10 10 8 8 9 9 8 8 1 -6 -8 -11 -13 -13 -13 -13 -12 -12 -11 -12 -13 -13 -15 -18 -20 -18
3 4 8 10 12 13 14 14 14 13 13 12 12 12 10 10 10 10 9 9 8 8 8 8 6 -5 -6 -7 -9 -12 -13 -14 -13 -11 -12 -12 -13 -13 -13 -12 -15 -20 -20
1 4 4 7 10 11 13 14 13 13 12 12 12 12 11 11 10 9 9 9 9 8 8 8 -4 -4 -4 -5 -7 -10 -12 -13 -14 -10 -11 -12 -13 -13 -11 -15 -20 -21 -21
0 2 4 4 8 10 12 13 13 13 12 12 12 12 11 11 10 9 9 9 9 8 8 -2 -4 -3 -3 -3 -5 -9 -11 -13 -15 -14 -12 -10 -11 -13 -13 -16 -17 -18 -19
-1 -0 1 4 4 5 10 13 13 13 12 12 12 11 11 11 10 9 9 9 8 8 4 -4 -2 -2 -1 -2 -4 -8 -10 -10 -11 -13 -13 -12 -13 -12 -15 -16 -16 -16 -17
1 1 -0 3 4 4 4 10 12 12 12 12 11 12 12 11 10 9 10 10 9 8 -3 -2 -1 -1 -1 -1 -3 -8 -10 -10 -9 -10 -12 -12 -12 -14 -15 -14 -14 -15 -16
1 1 2 1 3 4 4 6 11 13 12 12 12 12 12 11 10 10 10 10 9 5 -4 -1 -1 -1 -1 -1 -3 -7 -11 -10 -11 -13 -13 -14 -13 -13 -13 -13 -14 -14 -14
-3 -0 0 2 3 3 5 7 11 12 12 12 12 12 12 11 11 11 11 10 8 0 -2 -1 -0 -1 -1 -1 -2 -6 -11 -13 -15 -15 -14 -13 -14 -12 -12 -13 -14 -14 -15
-4 -3 -1 0 3 3 5 8 11 12 11 11 12 12 12 11 11 11 11 9 6 -3 -1 -1 -0 -1 -1 -1 -3 -7 -11 -14 -15 -13 -13 -14 -14 -14 -15 -14 -15 -14 -13
-4 -5 -4 -0 2 3 6 10 12 10 10 11 12 11 11 11 10 10 10 8 3 -2 -1 -1 -1 -1 -1 -2 -3 -7 -12 -14 -15 -14 -13 -14 -14 -15 -14 -16 -17 -16 -13

GFSSE_850_dewp_033.txt.gz
Dewpoint
14 10 7 3 4 6 8 9 10 11 11 12 12 12 11 11 10 9 8 8 9 8 8 9 8 12 13 10 10 9 9 9 7 4 -0 -2 -3 -4 -6 -5 -2 3 8
11 10 5 2 4 5 7 7 8 9 9 10 11 11 10 10 9 8 -1 4 9 7 10 11 12 13 11 10 10 9 6 0 -5 -4 -2 -0 1 2 -3 -3 -2 1 3
8 11 6 4 1 1 1 2 2 3 3 2 5 9 12 11 10 5 -5 -1 5 6 6 10 10 10 10 9 10 6 -3 -5 2 6 6 2 3 6 -2 -5 -2 7 4
9 10 7 5 1 0 1 2 -0 -2 -2 12 11 11 10 10 8 -4 -6 -6 -4 2 3 10 10 10 10 9 -1 -6 -1 4 8 8 9 8 6 6 3 -6 -3 2 9
10 9 5 4 3 2 3 1 -2 7 11 12 9 7 6 3 -1 -2 -2 -5 -6 -5 -4 -2 5 2 -4 -5 -1 1 3 8 10 10 11 10 8 9 7 5 1 0 4
13 9 7 5 4 4 5 2 -3 8 9 10 4 -1 1 3 1 1 -1 -1 -1 -3 -5 -4 -2 -0 1 2 4 6 8 10 11 10 10 10 10 10 8 8 9 9 10
14 10 9 5 6 5 5 1 -2 5 10 7 0 6 6 5 5 3 1 -0 0 0 0 1 3 5 7 8 8 9 9 10 10 9 10 10 10 9 8 9 10 10 11
14 14 13 9 6 7 6 1 -2 -2 5 7 1 6 6 9 9 5 2 0 1 1 3 4 6 7 8 9 9 8 7 9 10 10 9 9 9 9 7 9 9 10 9
14 15 15 12 9 9 6 2 -2 -5 0 6 6 6 8 10 10 7 4 1 1 3 5 5 7 9 9 8 8 8 8 9 10 10 9 9 10 6 3 5 9 7 5
14 14 14 13 10 9 7 3 1 -4 -5 -0 3 7 9 9 9 8 4 1 1 4 5 6 8 8 8 7 7 7 7 8 7 7 8 8 7 1 2 2 4 8 5
13 14 12 11 10 10 8 5 3 -0 -4 -2 3 7 9 10 10 10 6 1 3 5 6 7 8 8 7 6 7 7 5 4 3 4 4 3 2 6 3 3 6 6 5
13 14 13 13 10 11 11 8 5 2 -2 -3 3 5 7 8 9 9 7 2 5 6 7 8 8 7 8 8 8 8 1 -2 -3 -2 -2 -1 -1 6 2 2 2 1 0
13 13 13 14 14 12 10 10 7 5 2 -2 -0 4 7 9 8 9 7 2 7 7 8 8 8 8 8 7 7 -0 -4 -5 -6 -6 -6 -6 -4 -0 -0 -2 -1 -4 -6
12 12 13 13 14 13 13 8 8 7 5 2 -1 1 7 8 10 9 8 4 7 8 9 8 7 7 7 6 -2 -5 -7 -8 -10 -9 -9 -9 -9 -8 -7 -8 -8 -7 -7
12 12 12 12 13 13 13 13 10 9 9 7 5 4 4 7 9 7 8 10 9 10 8 8 8 7 7 1 -5 -8 -10 -11 -12 -12 -11 -10 -10 -10 -10 -10 -9 -9 -11
10 11 12 13 12 13 13 13 12 10 11 11 10 11 7 7 6 7 9 10 10 10 8 8 8 8 7 -5 -7 -11 -14 -14 -14 -14 -12 -11 -11 -11 -11 -11 -12 -17 -22
5 8 11 12 13 12 13 13 12 11 13 12 12 12 11 8 8 9 10 10 10 8 9 8 8 8 -2 -6 -9 -11 -13 -14 -13 -13 -12 -12 -11 -13 -14 -14 -14 -14 -16
3 4 9 11 12 12 12 13 13 11 12 12 12 12 11 8 9 9 10 10 9 8 8 8 8 7 -5 -6 -7 -9 -11 -13 -13 -13 -12 -12 -12 -13 -13 -14 -14 -19 -21
2 2 4 10 11 11 11 12 13 12 12 12 12 12 12 10 10 10 10 10 8 8 8 8 8 -3 -4 -4 -5 -7 -10 -11 -14 -13 -11 -13 -12 -13 -14 -15 -17 -18 -19
-1 1 1 6 8 9 10 11 12 11 13 13 12 11 12 11 10 10 10 9 9 8 8 8 4 -4 -3 -2 -4 -6 -10 -11 -12 -12 -13 -13 -13 -14 -14 -15 -17 -17 -17
-2 -2 -1 1 6 9 10 11 11 13 13 12 12 11 11 11 10 10 9 9 9 9 8 8 -4 -2 -1 -1 -3 -5 -9 -10 -11 -11 -15 -13 -13 -13 -14 -15 -15 -14 -15
-0 -1 -2 -0 3 6 10 10 9 9 12 12 11 11 11 11 11 11 10 9 9 9 8 5 -4 -2 -1 -1 -2 -4 -8 -8 -9 -11 -12 -13 -13 -13 -13 -13 -13 -13 -15
-1 0 0 -0 0 5 7 9 8 9 11 11 12 11 11 11 11 11 10 9 9 9 8 1 -2 -1 -0 -1 -1 -2 -7 -10 -11 -13 -13 -12 -14 -13 -13 -13 -13 -14 -14
-2 -2 -1 0 1 1 5 9 8 8 10 11 10 11 11 11 11 11 10 10 10 9 7 -2 -1 -1 -0 -0 -1 -2 -3 -7 -11 -14 -14 -14 -13 -13 -14 -14 -14 -15 -15
-4 -3 -3 -2 -1 1 3 4 4 8 10 10 10 10 10 9 11 11 10 10 10 9 5 -3 -1 -0 -0 -0 -1 -1 -3 -7 -11 -14 -14 -14 -15 -15 -15 -15 -15 -17 -18
-4 -4 -5 -5 -3 -1 0 4 4 5 8 9 10 10 10 10 11 11 10 10 10 8 4 -2 -1 -0 -1 -1 -1 -2 -4 -8 -12 -14 -14 -15 -15 -15 -15 -15 -17 -19 -19

GFSSE_850_dewp_036.txt.gz
Dewpoint
14 10 10 9 8 8 8 9 10 12 12 12 12 12 11 10 10 9 8 8 8 7 9 4 10 13 11 9 9 9 8 8 6 4 3 1 -1 -5 -6 -6 -3 0 5
11 10 8 8 7 6 8 10 10 11 12 12 12 12 10 10 9 6 -2 9 7 11 11 12 12 13 10 9 9 6 5 1 -2 -4 -5 -3 -2 -3 -5 -3 -2 -1 1
11 9 7 7 6 5 4 3 3 4 7 11 12 10 8 10 9 -6 -5 8 8 11 11 11 11 10 9 7 9 1 -5 -3 -0 1 2 1 3 2 -4 -5 -2 9 4
9 8 5 4 3 2 0 -2 -4 -3 -2 1 6 10 10 9 0 -8 -8 2 5 7 10 10 10 10 9 8 -4 -4 0 4 6 6 6 5 5 6 2 -4 -3 3 8
9 6 4 3 1 -1 -1 -2 -5 -2 6 12 11 9 7 2 -6 -6 -8 -8 -3 3 9 10 9 9 1 -4 -0 4 7 8 10 10 9 9 9 8 7 7 4 3 5
10 7 4 5 3 2 -0 -4 1 4 8 9 5 0 -3 -4 -3 -3 -4 -7 -7 -6 -5 -2 -4 -3 -0 3 5 7 9 10 10 10 10 10 10 10 9 9 10 10 11
10 7 4 6 6 4 1 -3 1 3 6 4 -3 -2 -1 -1 -1 -2 -1 -2 -2 -2 -2 -1 1 4 6 8 9 9 10 10 10 9 10 9 9 8 7 9 10 9 9
10 9 7 7 8 6 3 -2 -3 -1 3 -1 2 4 2 3 2 0 -0 0 1 1 3 5 6 7 8 9 8 7 7 9 9 9 9 9 9 9 6 8 9 10 11
13 10 11 9 9 8 6 0 -3 -3 1 0 2 5 6 9 5 2 0 1 2 4 5 6 7 9 9 8 7 7 8 9 9 9 9 9 9 8 7 7 7 6 5
14 14 14 13 10 10 7 3 -2 -5 -2 2 3 5 8 9 8 5 2 0 3 5 6 8 8 8 7 7 7 7 6 7 7 7 8 8 7 6 4 4 8 9 9
15 15 14 14 12 10 8 5 2 -3 -4 0 5 6 9 9 8 7 4 1 4 5 6 7 8 7 6 6 6 6 5 4 3 3 4 4 3 6 4 8 7 7 7
15 14 14 13 13 10 9 6 4 0 -3 -3 3 5 8 9 9 9 5 1 4 6 7 8 7 7 7 7 7 7 4 -2 -3 -2 -2 -1 2 4 2 5 3 -1 -1
13 14 13 13 12 10 10 8 6 3 -1 -3 1 5 7 7 7 8 7 2 4 6 8 8 8 7 8 7 7 3 -3 -4 -6 -6 -6 -6 -4 -1 -2 -2 -3 -6 -7
12 12 13 13 13 13 11 10 9 5 2 -2 -1 3 5 6 6 6 7 2 3 6 7 7 7 7 7 7 3 -4 -6 -9 -9 -9 -10 -9 -8 -7 -6 -7 -7 -8 -8
11 11 12 12 12 13 13 12 10 6 6 3 -1 0 4 4 6 8 8 5 4 7 8 7 7 7 7 6 -3 -6 -9 -12 -13 -12 -12 -11 -10 -9 -8 -9 -10 -10 -13
11 11 11 12 12 12 13 13 12 10 7 6 4 -0 -1 1 5 7 9 7 9 9 9 8 8 7 7 5 -6 -8 -12 -13 -14 -13 -13 -12 -11 -11 -11 -11 -12 -17 -20
7 12 12 11 12 11 11 12 12 12 11 9 9 8 6 2 4 7 7 8 10 10 9 8 8 8 8 -2 -7 -9 -11 -12 -13 -13 -13 -13 -12 -12 -13 -13 -13 -13 -16
2 3 10 12 12 11 11 11 12 12 12 9 11 11 10 9 7 6 7 9 10 10 9 8 8 8 7 -5 -6 -8 -10 -12 -12 -13 -13 -12 -13 -13 -13 -14 -15 -17 -18
2 2 1 9 12 11 11 12 11 11 12 10 11 12 11 11 9 7 8 9 10 10 8 8 8 8 5 -5 -5 -6 -8 -10 -13 -14 -13 -12 -13 -13 -14 -15 -15 -17 -17
1 1 1 1 7 11 10 10 11 11 12 10 11 12 12 11 11 9 9 10 10 10 8 8 8 8 -4 -3 -3 -5 -7 -11 -12 -12 -12 -13 -13 -12 -13 -14 -15 -16 -15
-1 -2 -1 -2 -0 6 10 10 10 11 12 11 12 12 12 12 11 11 10 10 10 10 8 8 8 5 -4 -2 -2 -4 -8 -9 -10 -11 -13 -12 -12 -12 -13 -13 -14 -14 -14
0 -0 -1 -2 -2 -0 8 9 9 8 10 11 11 12 12 12 11 11 10 10 10 10 9 9 8 -2 -3 -1 -2 -2 -6 -6 -8 -10 -11 -11 -12 -13 -13 -13 -14 -13 -14
-0 0 -0 -1 -2 -2 1 8 9 10 9 9 10 12 11 11 11 10 10 10 10 9 9 9 7 -3 -2 -1 -1 -2 -4 -6 -7 -9 -11 -12 -12 -13 -13 -13 -14 -13 -14
-2 -2 -1 -1 0 1 1 6 8 9 9 9 8 9 11 11 10 9 11 11 11 9 9 9 7 -3 -1 -1 -1 -1 -1 -2 -5 -10 -11 -12 -13 -12 -13 -14 -14 -15 -15
-4 -4 -3 -3 -2 -1 1 1 5 8 9 8 8 8 8 10 10 10 10 11 11 10 9 9 7 -2 -1 -0 -0 -1 -1 -2 -3 -6 -10 -11 -13 -14 -14 -15 -15 -15 -17
-5 -4 -4 -4 -4 -3 -2 1 1 3 8 9 9 8 7 9 9 10 10 11 11 10 10 9 6 -2 -1 -0 -1 -1 -1 -2 -3 -7 -10 -12 -13 -14 -15 -15 -15 -17 -19

GFSSE_850_dewp_039.txt.gz
Dewpoint
12 14 14 13 12 12 13 11 12 13 13 12 12 12 11 10 9 9 9 8 8 6 6 3 12 12 10 9 9 9 8 7 7 5 4 2 1 -3 -7 -7 -5 -2 2
8 11 10 14 13 8 8 9 10 12 12 11 13 12 10 10 8 6 1 9 6 9 7 11 13 11 10 9 9 6 7 5 2 -1 -2 -3 -2 -5 -8 -5 -3 0 -0
10 9 5 8 11 11 10 11 12 12 12 12 12 12 9 9 8 -7 5 9 10 13 13 13 13 10 9 6 9 2 -4 -3 -2 -0 -1 2 1 -1 -7 -5 1 11 6
10 7 4 5 8 8 7 8 8 8 11 12 10 7 9 9 -2 -8 4 11 12 12 12 11 10 10 8 8 -4 -5 0 5 4 6 6 4 5 5 3 -2 -1 4 8
10 6 1 2 5 6 5 4 2 1 1 2 7 9 8 2 -9 -9 -5 8 9 10 10 9 10 8 6 -4 -1 4 6 7 7 7 9 8 9 9 7 7 6 7 7
9 7 -0 -0 3 2 0 -0 -1 -1 5 10 8 4 -2 -8 -7 -9 -9 -7 1 7 10 9 8 -3 -2 1 4 7 8 9 10 10 10 9 10 9 10 10 10 11 12
10 8 2 1 1 1 1 -3 -1 4 10 6 -1 -5 -7 -6 -5 -5 -5 -7 -7 -6 -6 -4 -1 2 5 7 8 9 9 10 9 9 9 9 9 7 8 8 8 9 9
10 8 4 3 3 3 1 -3 3 5 6 -1 -4 -5 -5 -4 -4 -3 -2 -2 -2 -2 -0 2 5 7 8 8 8 7 8 9 9 8 9 8 8 8 6 8 10 10 10
11 9 5 4 5 5 4 -2 3 2 4 -2 -0 -1 1 -0 -2 -2 -1 -0 1 2 5 6 7 8 9 8 7 7 7 8 9 9 9 9 8 8 6 5 6 5 4
14 12 8 5 7 7 5 1 -0 1 6 -1 2 3 5 7 1 -0 -1 1 2 5 6 8 9 8 7 7 7 6 7 7 7 6 7 8 6 6 4 6 7 8 3
14 13 11 11 9 7 7 4 0 -0 5 2 2 5 7 7 5 2 1 1 3 5 7 8 8 7 6 6 6 6 5 5 4 3 3 4 5 3 7 7 7 7 4
14 13 14 13 13 11 9 6 3 -1 2 4 3 5 7 8 7 5 3 1 4 6 7 7 7 7 7 7 7 7 6 1 -2 -1 -1 1 5 2 6 4 3 1 -2
13 13 12 13 14 13 11 7 4 2 -1 1 4 5 7 8 9 9 6 1 4 6 6 7 7 7 7 7 7 6 -1 -4 -5 -5 -5 0 -0 -2 2 -2 -5 -6 -6
12 12 13 13 13 12 11 9 6 4 2 -1 1 3 6 7 8 9 7 3 3 6 7 7 7 7 7 7 6 -0 -5 -7 -8 -9 -9 -8 -8 -7 -6 -7 -8 -9 -9
12 12 12 12 12 12 12 11 10 8 5 2 -2 1 5 6 6 7 8 6 3 6 7 8 7 7 7 7 5 -4 -7 -10 -13 -13 -12 -11 -10 -9 -9 -10 -10 -11 -13
12 12 12 12 12 12 12 12 12 11 9 5 2 -1 1 4 6 7 8 8 4 6 8 8 7 7 7 7 4 -6 -9 -12 -13 -13 -13 -12 -12 -11 -11 -12 -13 -16 -16
12 11 11 11 12 12 12 12 13 12 11 8 6 4 -0 1 3 7 8 9 7 9 9 9 8 7 7 7 -0 -7 -9 -11 -13 -13 -13 -13 -12 -12 -13 -13 -13 -14 -16
8 11 11 11 12 12 12 12 12 11 11 12 11 7 4 1 1 5 7 8 8 10 10 9 8 8 8 7 -3 -7 -8 -10 -12 -12 -13 -12 -12 -13 -13 -14 -15 -15 -17
1 1 1 2 8 11 12 12 12 11 10 11 12 9 9 8 8 5 7 7 8 10 10 9 8 8 8 7 -5 -5 -7 -9 -10 -13 -13 -12 -13 -13 -13 -14 -14 -16 -17
-2 -0 0 -0 0 2 10 12 12 11 11 11 11 10 10 10 10 10 8 7 9 10 10 10 8 8 8 5 -4 -4 -6 -7 -11 -12 -12 -12 -13 -12 -12 -13 -14 -15 -15
0 -2 -3 -1 -1 -1 0 8 12 10 11 12 11 11 10 11 11 10 9 8 9 9 10 10 9 8 7 1 -3 -3 -5 -8 -9 -10 -11 -12 -11 -11 -12 -13 -14 -14 -15
-0 -0 -0 -2 -2 -1 -1 -0 7 10 10 10 10 10 10 11 10 10 10 10 9 10 10 10 9 8 8 -2 -2 -2 -4 -6 -7 -9 -9 -10 -10 -10 -12 -13 -13 -14 -14
-2 -1 0 0 -0 -1 -1 -1 3 9 10 9 10 10 11 10 10 9 8 10 10 10 10 10 9 8 8 -2 -2 -2 -3 -4 -6 -7 -8 -10 -11 -10 -11 -13 -13 -14 -14
-5 -6 -3 -2 -1 -1 -0 -1 -0 2 7 8 8 8 9 10 10 9 9 9 10 10 10 10 9 9 8 -2 -2 -1 -1 -2 -4 -5 -7 -9 -11 -11 -12 -12 -13 -14 -15
-5 -4 -4 -3 -3 -2 -2 0 1 3 4 6 8 8 8 8 9 9 9 8 10 10 10 11 9 9 8 0 -2 -1 -1 -1 -2 -3 -6 -7 -10 -12 -12 -13 -14 -15 -15
-6 -6 -5 -4 -4 -3 -3 -2 1 4 5 7 9 9 9 8 8 8 10 9 9 10 10 11 10 9 8 3 -2 -1 -1 -1 -1 -2 -4 -7 -9 -11 -13 -14 -15 -15 -16

GFSSE_850_dewp_042.txt.gz
Dewpoint
8 13 15 15 13 12 12 12 13 13 14 13 13 13 12 11 10 8 8 9 7 6 6 7 12 10 9 9 8 8 8 8 7 7 6 4 2 -2 -7 -6 -3 -3 -1
5 13 15 13 12 13 13 13 14 13 13 12 11 11 11 9 9 7 3 7 4 6 5 12 13 11 9 8 9 7 7 6 4 2 0 -2 -4 -7 -7 -4 2 -0 -1
7 9 13 12 12 14 14 13 12 13 12 12 13 12 8 7 6 -7 9 8 11 11 12 14 13 10 8 4 7 0 1 -1 -2 -2 -2 0 -1 -4 -6 -3 5 7 6
8 6 7 11 13 14 14 15 13 13 13 12 13 13 7 7 -4 -1 10 10 13 13 14 14 10 9 8 4 -4 -5 -3 1 3 4 3 4 5 5 3 0 3 5 7
9 5 3 6 6 14 15 12 9 12 12 12 12 9 8 2 -10 -6 8 7 13 12 11 10 9 8 4 -4 -2 1 3 5 6 8 7 8 9 10 9 8 9 10 10
9 6 2 2 5 5 7 5 5 9 11 11 9 7 1 -9 -10 -9 -3 2 7 9 8 9 8 -0 -3 0 3 5 7 8 9 9 8 9 9 9 11 9 11 11 11
9 7 3 1 1 2 3 0 -0 0 2 9 6 1 -8 -8 -8 -10 -9 -3 5 8 8 4 -3 -0 3 5 6 8 9 9 9 9 8 8 9 7 8 8 9 11 11
9 8 4 2 -0 -1 0 -1 -2 -0 13 8 1 -5 -6 -6 -6 -5 -6 -7 -6 -6 -4 -0 4 6 7 8 8 8 9 9 9 8 8 8 9 7 6 8 10 10 10
11 9 5 1 0 1 2 -1 0 2 8 4 -3 -5 -4 -4 -4 -3 -3 -2 -2 -0 2 5 6 7 8 8 7 7 7 9 9 9 9 8 9 7 6 3 4 3 3
12 10 7 2 2 2 2 -1 2 3 6 1 -1 -1 1 -1 -1 -1 -1 -0 1 3 4 6 8 7 6 6 6 7 7 7 7 7 7 7 7 5 6 7 8 6 4
13 11 9 4 3 3 3 2 1 5 5 2 2 3 5 7 1 -0 -0 1 3 4 5 8 8 6 6 6 6 6 5 4 3 2 3 5 4 6 7 6 6 5 1
13 13 11 8 7 6 5 5 2 -0 0 4 1 4 6 7 6 3 2 1 4 6 8 9 7 7 6 6 6 7 7 2 -2 -2 -2 1 2 4 5 0 -1 -2 -5
12 13 12 12 12 12 11 8 5 1 -1 2 3 3 5 8 8 7 5 2 4 6 6 7 7 7 7 7 7 6 3 -4 -5 -6 -6 2 -2 0 2 -5 -7 -9 -9
9 11 13 13 13 13 13 12 9 4 2 -1 1 4 5 7 8 8 7 5 2 5 6 7 7 7 7 6 6 4 -3 -6 -8 -9 -9 -8 -8 -6 -7 -8 -9 -10 -10
11 11 12 13 13 13 13 12 11 8 5 3 -0 0 4 5 7 8 8 6 2 5 6 7 7 7 6 6 6 3 -5 -8 -11 -12 -11 -11 -10 -8 -7 -8 -10 -11 -14
11 11 12 12 12 12 12 12 12 11 10 7 4 0 1 4 6 7 8 7 6 4 7 7 8 7 7 6 7 3 -6 -10 -12 -13 -13 -12 -11 -10 -10 -11 -12 -15 -15
11 11 11 11 12 12 12 12 12 12 12 11 10 6 1 2 5 7 7 7 7 5 6 8 8 7 7 7 7 2 -7 -9 -11 -12 -13 -12 -12 -11 -12 -13 -14 -14 -16
5 11 11 11 12 12 12 12 12 12 10 12 11 9 6 3 3 5 7 8 9 8 8 9 9 8 7 7 7 1 -7 -8 -10 -11 -12 -13 -12 -12 -13 -13 -14 -15 -16
-1 2 9 11 12 11 12 12 12 12 11 11 11 11 10 9 5 2 5 7 9 9 8 9 9 8 8 8 7 1 -6 -6 -8 -10 -13 -12 -12 -13 -13 -14 -14 -15 -16
-2 -2 -1 1 1 1 2 7 11 11 11 11 11 12 12 11 9 5 3 5 8 8 8 10 10 9 8 8 7 -0 -5 -5 -7 -11 -12 -11 -12 -12 -12 -12 -13 -14 -15
-1 -1 -1 -1 -1 -0 -0 1 3 8 11 11 11 10 11 11 10 10 9 7 8 7 7 9 10 9 8 8 6 -2 -4 -5 -6 -9 -10 -11 -12 -12 -11 -12 -13 -14 -14
-1 -1 -1 -0 -1 -1 -1 -1 -0 0 2 6 10 9 9 10 11 10 9 9 9 8 8 9 10 10 9 7 5 -3 -4 -4 -5 -7 -9 -9 -10 -10 -10 -11 -12 -13 -13
-5 -5 -3 -1 -0 0 -0 -1 -1 1 2 3 6 9 8 9 9 9 10 9 10 8 8 9 10 10 9 8 7 -2 -3 -3 -4 -5 -7 -8 -8 -9 -10 -10 -11 -12 -12
-6 -5 -6 -6 -3 -1 -1 -1 -0 -0 0 -0 0 3 8 9 8 9 10 9 8 10 9 9 10 10 9 8 7 2 -3 -2 -4 -5 -6 -7 -7 -9 -9 -10 -11 -11 -12
-5 -5 -5 -5 -6 -4 -2 -1 -1 -0 0 3 2 3 7 9 8 8 8 9 8 9 10 10 10 10 10 9 9 7 -2 -2 -2 -2 -3 -4 -6 -8 -9 -9 -10 -11 -13
-1 -3 -5 -5 -4 -4 -3 -3 -3 -2 -1 1 4 6 6 9 9 8 8 7 7 7 9 9 10 10 10 9 8 5 -0 -2 -1 -2 -2 -2 -3 -6 -8 -9 -11 -12 -14

GFSSE_850_dewp_045.txt.gz
Dewpoint
8 11 15 15 13 11 12 13 13 12 14 15 14 14 14 13 12 10 9 8 6 5 6 11 11 11 7 8 9 9 9 8 9 7 8 7 5 0 -6 -6 -6 -4 -4
6 12 15 15 12 11 13 12 13 13 14 14 13 13 12 11 9 8 4 4 3 4 7 13 12 12 6 7 8 7 7 7 5 4 3 -0 -5 -8 -7 -4 -1 -2 -1
8 10 15 14 11 12 13 14 14 13 13 12 11 9 11 9 7 -5 5 6 8 9 13 13 12 9 4 4 5 1 4 3 1 -1 -2 -1 -2 -5 -4 -1 4 6 3
7 5 11 12 14 13 14 14 13 12 12 13 12 8 6 5 -6 6 11 13 13 13 14 13 10 7 6 -2 -4 -4 -2 -1 0 0 2 4 3 4 2 3 7 7 7
7 2 4 10 11 12 13 14 13 12 12 12 12 4 5 -3 -8 7 11 12 13 13 13 11 7 5 -2 -6 -4 -0 2 3 5 6 5 7 9 10 9 10 11 11 11
8 5 3 8 13 14 14 14 11 12 11 11 8 5 1 -9 -9 1 6 11 12 12 9 6 6 -1 -4 -0 2 5 7 8 8 8 8 8 9 12 10 9 10 12 11
10 7 4 3 10 8 7 12 7 10 10 9 9 3 -7 -8 -9 -7 -3 4 8 7 7 7 -2 -1 1 4 6 7 8 8 8 8 7 8 9 8 9 10 11 11 11
10 8 5 6 8 0 4 3 2 0 0 7 5 -3 -7 -6 -7 -8 -6 3 7 7 2 -2 0 4 6 7 7 7 8 8 8 7 7 8 10 7 8 8 9 9 9
10 9 6 2 3 3 1 -1 -0 -0 9 8 3 -6 -6 -6 -4 -4 -6 -6 -5 -5 -2 3 5 6 7 7 6 6 6 8 8 8 7 7 10 6 8 3 2 2 1
11 9 7 3 2 0 -0 -2 -2 0 12 6 -1 -4 -3 -3 -2 -2 -1 -1 -1 1 4 5 6 7 6 6 6 6 7 7 7 6 6 5 7 6 7 8 6 3 1
11 10 9 6 2 1 2 0 -1 1 3 6 -1 -1 1 0 -0 -0 0 1 2 5 5 7 8 6 6 6 6 6 5 5 4 3 3 3 4 6 8 6 5 2 -2
11 11 10 8 4 3 3 3 0 -1 -1 3 -0 2 4 7 3 1 0 2 4 5 6 10 7 6 6 5 6 6 6 4 -0 -1 -1 1 2 6 2 -1 -1 -2 -7
12 12 12 10 7 6 6 6 5 2 -0 1 2 2 4 6 8 4 2 1 4 5 8 9 7 6 6 6 6 6 5 -2 -4 -5 -5 -3 1 5 -3 -7 -7 -9 -10
12 12 12 12 10 10 11 10 10 7 3 1 1 2 2 4 7 8 6 4 2 4 6 7 7 6 6 6 6 6 1 -5 -7 -8 -8 -6 -6 -6 -9 -9 -10 -11 -12
12 10 10 11 12 12 12 12 12 11 8 4 2 3 3 3 5 8 8 7 5 3 5 6 7 7 6 6 6 6 0 -6 -9 -11 -11 -10 -10 -9 -9 -10 -11 -12 -14
12 11 11 11 11 12 10 11 13 12 11 9 6 3 2 3 4 6 8 8 8 3 5 6 7 7 7 6 6 6 2 -6 -10 -12 -13 -12 -11 -10 -9 -10 -12 -14 -15
8 10 11 11 12 12 12 12 12 12 12 11 10 8 5 2 2 4 7 8 8 7 4 6 7 7 7 7 7 7 3 -7 -9 -11 -12 -12 -12 -11 -11 -12 -14 -14 -15
-1 1 6 10 11 11 11 12 11 11 11 12 11 12 11 8 3 2 4 6 8 8 6 5 7 8 7 7 7 7 5 -6 -8 -10 -11 -12 -12 -12 -12 -13 -13 -15 -16
-3 -2 -1 3 10 11 11 11 11 11 11 11 12 11 11 11 7 4 3 5 7 8 9 7 8 9 8 7 7 7 5 -5 -7 -8 -10 -12 -12 -12 -13 -13 -14 -15 -16
-3 -3 -2 -1 3 10 11 12 11 10 10 11 11 11 11 11 11 9 6 4 6 8 9 9 9 9 9 8 7 7 5 -4 -6 -7 -9 -12 -12 -12 -13 -13 -13 -13 -15
-1 -0 -1 -1 -1 0 4 6 5 3 5 8 9 8 9 10 11 11 10 7 4 6 7 9 9 10 10 9 7 7 4 -4 -5 -6 -8 -11 -11 -12 -12 -11 -12 -12 -13
-4 -3 -2 -1 -1 -0 -0 -0 1 1 1 2 5 8 8 9 9 10 10 10 7 5 6 9 8 9 10 9 7 6 0 -2 -4 -4 -6 -9 -10 -10 -11 -10 -10 -11 -12
-6 -5 -5 -4 -2 -1 -1 -0 -0 -0 1 2 3 2 6 8 9 8 8 9 9 8 7 8 8 8 10 10 8 6 1 -2 -3 -4 -5 -7 -8 -9 -9 -9 -9 -10 -11
-5 -5 -5 -5 -5 -4 -2 -0 0 -0 1 -1 -1 -1 -0 3 7 8 8 9 9 9 10 9 8 8 9 10 9 8 7 4 -2 -3 -4 -5 -7 -8 -7 -8 -8 -9 -10
0 -1 -3 -4 -5 -4 -5 -2 -1 -0 -0 -0 -0 0 1 2 5 6 8 9 8 8 9 9 9 9 9 10 10 9 6 5 5 -3 -3 -3 -4 -7 -7 -8 -8 -8 -9
-2 -0 -1 -1 -2 -3 -4 -3 -2 -1 -1 0 1 1 1 2 3 5 6 9 8 8 8 8 9 10 9 10 10 9 8 7 6 -2 -3 -3 -3 -5 -6 -7 -8 -9 -10

GFSSE_850_dewp_048.txt.gz
Dewpoint
8 9 14 15 14 13 12 13 13 13 13 14 15 14 14 13 13 11 8 7 7 6 8 11 7 5 5 11 10 10 9 9 9 7 7 6 4 -1 -7 -6 -0 8 2
9 13 14 15 15 13 13 13 13 13 14 15 15 14 14 12 10 8 5 4 3 5 12 12 12 8 2 7 8 8 8 8 7 6 4 0 -5 -8 -6 -4 -3 -2 -3
14 15 14 15 10 13 13 13 13 14 14 13 12 12 12 10 8 -4 1 6 6 7 13 13 11 6 -0 5 6 5 5 5 3 0 -1 7 -4 -5 -2 2 4 1 -1
15 15 15 13 12 14 15 14 14 13 13 13 12 8 9 6 -3 7 12 12 12 13 14 13 9 5 1 -4 -4 -2 0 -1 -1 0 10 11 10 3 5 8 9 8 7
15 15 15 12 12 12 14 14 13 12 12 13 12 2 5 -4 2 12 13 13 14 14 13 11 8 1 -6 -6 -2 1 2 3 4 8 11 11 11 11 11 11 11 12 11
15 15 12 12 14 14 15 15 13 12 12 12 8 -1 -3 -10 1 10 12 13 13 13 12 9 4 -4 -3 0 3 6 6 7 8 11 11 10 13 11 9 9 12 12 11
15 14 12 12 13 14 15 14 14 12 12 12 8 -0 -8 -10 -7 2 10 10 13 11 7 4 -2 -3 0 4 6 7 7 7 10 10 11 12 10 10 9 10 10 10 10
15 14 14 14 15 15 14 14 13 13 13 10 8 0 -8 -9 -9 -7 1 8 9 7 5 0 -2 3 6 7 7 7 7 7 10 11 11 12 8 7 10 9 8 9 9
14 12 14 12 15 14 13 7 6 7 11 9 4 -3 -7 -6 -7 -9 -1 5 6 4 -2 -0 4 6 7 7 6 6 6 7 10 10 10 12 10 7 8 5 3 2 2
13 12 13 13 13 13 9 3 2 1 9 12 6 -5 -4 -4 -4 -4 -6 -5 -4 -3 1 5 6 7 7 6 6 7 7 7 10 8 10 10 8 7 8 9 7 3 0
14 14 14 13 13 12 11 3 2 2 13 11 6 -4 -3 3 -2 -1 -1 -1 -0 3 5 8 7 6 5 5 5 6 5 7 8 9 9 5 6 8 8 7 4 0 -3
11 12 13 13 13 9 5 7 2 9 12 11 6 -1 6 11 10 8 1 2 3 10 10 9 8 6 5 5 5 6 6 5 7 8 9 2 6 5 2 -1 -3 -4 -8
10 11 11 12 12 8 6 9 11 13 12 12 11 10 11 11 10 6 7 2 8 7 10 10 9 6 6 5 6 6 6 2 4 7 8 -2 6 2 -7 -8 -8 -9 -12
11 12 11 11 11 7 6 6 10 12 12 12 10 10 11 10 11 11 11 10 10 10 11 11 9 6 6 6 6 6 5 -2 0 5 8 -3 -1 -7 -8 -10 -10 -11 -12
10 11 12 12 13 11 9 11 12 12 10 10 8 6 10 10 11 12 12 11 10 11 11 10 7 6 6 6 6 6 5 -1 -5 3 7 -6 -7 -8 -9 -10 -10 -12 -13
14 13 11 11 12 13 11 11 12 12 12 11 9 7 3 8 7 9 11 12 11 10 10 8 6 7 7 6 6 6 6 2 -6 -4 4 2 -9 -9 -9 -8 -10 -12 -15
10 12 14 12 10 11 12 12 12 12 11 11 11 12 8 5 6 5 8 11 11 11 8 6 6 6 7 7 6 6 6 4 -6 -8 -9 4 -3 -9 -10 -10 -12 -14 -14
1 3 8 12 11 11 10 11 11 12 11 10 11 11 11 9 6 5 8 11 11 11 9 6 5 6 7 7 7 7 7 6 -4 -8 -9 -10 -7 -2 -11 -11 -13 -13 -15
-1 -0 -1 -0 8 10 7 10 11 11 11 11 11 11 10 11 11 9 7 10 11 10 9 8 6 5 7 8 7 7 7 6 -1 -7 -8 -9 -10 -11 -8 -13 -13 -14 -15
-2 -2 -2 -2 1 5 11 8 11 10 10 11 11 10 11 10 10 11 10 9 10 9 9 8 8 7 8 9 8 7 7 6 3 -6 -7 -8 -9 -12 -12 -13 -13 -14 -14
-1 -0 -0 -1 -2 -0 9 9 8 11 10 10 9 8 10 10 10 10 10 10 8 7 9 7 8 9 8 9 8 7 7 6 5 -4 -6 -7 -8 -11 -11 -12 -12 -12 -12
-4 -3 -2 -1 -0 -0 1 9 2 5 9 10 9 7 7 9 8 9 9 9 10 9 8 8 8 9 9 9 9 4 2 3 5 2 -5 -5 -6 -9 -10 -11 -12 -10 -11
-6 -6 -6 -4 -3 -1 -1 1 9 11 10 4 3 3 3 4 7 8 8 8 9 10 9 7 6 7 10 9 9 6 4 4 2 2 -2 -5 -5 -7 -9 -10 -10 -10 -9
-1 -2 -4 -4 -5 -4 -3 -2 1 8 10 7 2 1 0 1 2 5 8 7 7 8 8 9 7 6 9 9 9 9 8 4 -0 -1 -3 -3 -5 -6 -7 -8 -8 -9 -8
-1 -1 -1 -2 -3 -4 -4 -4 -4 5 10 10 10 10 4 1 0 1 2 7 7 8 8 8 9 8 7 9 8 9 9 8 4 1 -1 -1 -3 -5 -6 -7 -8 -8 -8
-1 -1 -2 -1 -1 -2 -2 -4 -4 -4 6 10 10 10 9 7 3 2 3 4 7 7 7 8 8 9 9 9 9 9 9 9 8 6 1 2 -3 -4 -5 -6 -7 -7 -7

GFSSE_850_dewp_051.txt.gz
Dewpoint
15 6 6 14 14 14 13 12 13 13 14 14 14 14 14 14 13 11 8 8 8 7 8 8 5 7 7 11 12 11 11 10 9 8 7 6 2 -5 -8 -5 7 7 10
15 9 10 13 15 13 13 13 13 13 13 14 14 15 14 13 10 8 5 5 4 6 12 11 8 3 2 6 10 9 9 9 8 6 3 3 -7 -8 -5 -3 -3 -5 2
15 15 13 15 13 12 13 13 13 13 14 14 13 13 12 11 7 -3 2 5 4 10 13 13 8 1 -1 5 6 7 7 6 4 0 8 7 -2 -2 1 3 2 -2 -1
15 16 15 13 11 13 14 13 13 14 13 12 6 8 10 6 -3 11 11 9 11 14 13 12 8 2 -4 -2 -1 1 2 0 -1 7 10 10 10 6 8 9 10 9 6
15 15 15 11 12 14 14 14 14 14 14 13 8 4 4 -5 7 13 13 13 13 14 13 11 6 -4 -8 -7 -4 -2 -0 1 6 11 11 9 12 11 11 11 12 12 11
14 15 14 12 12 14 15 14 14 13 13 13 9 2 -5 -5 10 12 13 13 14 12 12 10 1 -6 -3 -0 3 5 5 7 10 11 11 11 12 12 11 12 12 11 10
14 15 13 13 13 14 14 14 14 13 13 13 4 -4 -9 -6 4 10 12 13 13 13 11 4 -4 -3 1 4 6 7 7 8 11 11 11 11 10 11 10 10 10 10 10
14 15 14 12 13 14 14 14 14 13 13 13 8 -4 -9 -9 -8 -2 9 10 12 10 5 1 -3 2 5 6 6 7 7 7 10 10 11 11 8 9 10 9 7 8 9
14 14 15 13 14 14 14 14 14 12 13 12 7 -2 -7 -9 -9 -6 1 8 8 6 3 -3 2 5 6 6 5 5 6 8 10 10 11 10 9 7 6 5 1 0 1
14 14 13 14 13 14 14 14 12 9 8 8 7 -1 -6 -5 -7 -8 -0 3 4 1 -3 1 4 6 6 5 5 5 6 7 10 10 10 10 8 8 8 6 2 -1 -3
14 14 13 13 14 14 13 10 6 4 4 13 9 -1 -5 -3 -3 -4 -5 -5 -5 -3 1 6 5 6 5 4 4 5 5 9 9 9 10 8 6 8 7 6 -1 -3 -5
14 14 14 13 13 13 12 12 4 5 9 14 11 3 -1 10 6 6 2 -1 -1 7 8 6 7 6 5 5 5 5 6 7 7 8 9 7 6 3 3 0 -4 -5 -8
12 14 14 14 13 13 12 12 11 11 12 13 13 11 10 11 11 6 2 -0 1 4 8 7 9 6 5 5 6 6 6 6 5 7 8 3 3 1 -4 -8 -8 -9 -11
14 14 11 14 14 13 12 12 11 12 13 12 12 11 11 11 12 11 10 5 5 11 11 10 10 9 6 5 5 5 5 4 4 5 7 5 2 -5 -9 -10 -10 -11 -12
14 14 13 12 14 14 13 12 11 12 13 13 12 11 10 11 11 12 11 11 10 11 11 11 11 9 7 5 5 5 4 3 3 5 7 5 -6 -7 -11 -11 -11 -12 -13
13 14 14 12 11 14 14 13 13 13 13 13 13 12 10 11 11 11 12 12 11 10 11 11 11 9 7 5 4 5 4 3 2 4 6 3 -6 -9 -11 -11 -11 -12 -14
11 12 14 13 10 11 14 12 13 14 13 13 14 13 12 9 10 11 11 11 11 11 11 10 10 9 6 4 4 5 5 5 3 1 3 5 -0 -10 -11 -10 -11 -12 -14
4 5 9 12 14 14 14 13 11 14 14 14 13 13 13 12 10 10 10 11 11 11 12 11 10 9 6 5 5 4 5 6 5 1 1 2 3 -3 -8 -11 -11 -12 -14
2 3 3 4 9 13 14 14 11 11 12 14 14 13 13 13 13 12 11 11 11 11 11 11 10 9 6 5 5 4 5 6 6 4 -1 -3 -2 -0 -3 -10 -12 -13 -14
-0 0 1 1 2 6 10 12 13 9 9 11 14 13 13 13 12 12 12 11 11 11 11 11 10 9 7 6 5 4 5 7 6 6 1 -3 -4 -7 -6 -7 -11 -13 -14
-1 -0 0 1 1 2 5 8 12 10 3 5 10 12 13 12 13 13 12 12 12 11 11 11 11 10 8 6 5 4 4 6 7 6 4 -3 -4 -5 -8 -10 -11 -13 -13
-3 -3 -2 -0 1 1 1 3 7 10 3 -0 3 9 12 12 11 11 12 11 11 11 11 11 11 10 8 7 6 5 4 4 7 7 6 1 -4 -5 -6 -9 -11 -11 -12
1 -4 -5 -4 -2 -0 0 1 3 8 11 11 7 4 8 11 12 13 11 11 11 12 11 11 11 10 8 7 8 7 6 5 5 3 5 4 -3 -4 -5 -7 -9 -10 -11
1 -1 -1 -3 -4 -5 -4 -2 1 4 8 11 11 12 10 7 6 7 9 12 12 12 12 11 11 11 10 8 7 8 7 5 5 2 2 2 -1 -4 -4 -6 -7 -9 -9
-0 -1 -1 -1 2 -1 -3 -4 -4 -2 -0 6 9 11 10 11 10 6 6 10 11 11 11 12 11 11 10 9 7 7 8 7 5 3 2 1 -2 -3 -4 -5 -6 -7 -8
3 1 -1 -1 -1 2 0 -1 -2 -3 -2 3 6 9 10 11 11 11 10 9 11 12 12 12 11 11 10 10 9 8 7 8 8 7 5 3 2 1 -1 -4 -5 -6 -7

GFSSE_850_dewp_054.txt.gz
Dewpoint
14 6 5 13 13 14 12 13 12 13 14 13 13 14 13 13 13 11 8 8 7 8 9 6 7 8 8 12 12 11 9 9 9 7 5 2 -6 -8 -4 5 4 7 11
11 5 9 14 14 14 12 12 14 13 14 14 14 14 14 13 10 7 4 5 4 12 11 9 4 -2 3 7 10 9 9 8 6 4 4 -4 -6 -2 -0 -0 -3 -2 6
12 7 8 14 15 12 13 13 13 14 14 14 13 12 12 9 2 -2 3 3 7 13 13 11 6 -0 -3 6 6 8 7 5 3 9 10 9 2 3 6 6 2 -1 -0
14 11 11 13 14 13 13 13 13 14 14 13 6 8 9 2 10 9 8 6 11 13 13 10 5 -6 -6 -2 2 2 1 1 9 11 11 11 10 9 9 10 10 8 8
16 14 11 14 12 14 14 13 13 14 12 3 3 5 3 0 12 13 13 13 14 13 12 11 -0 -8 -8 -5 -3 -2 1 8 11 11 9 11 11 11 11 12 11 11 11
15 15 12 9 13 14 14 14 14 13 13 7 3 1 -8 8 12 13 13 13 13 12 12 10 -4 -4 -2 2 4 4 7 10 10 11 10 11 11 11 11 12 11 11 11
15 15 13 10 13 15 15 14 14 13 13 12 2 -4 -9 3 10 12 12 13 12 13 11 2 -5 -1 2 4 5 5 7 10 10 11 11 10 11 11 9 9 9 9 9
14 15 14 10 12 14 14 14 14 13 13 12 3 -7 -9 -6 -2 7 10 11 11 12 5 -1 -2 2 4 5 5 5 6 10 10 10 10 10 8 10 8 6 3 5 8
14 15 11 11 13 14 14 14 14 13 13 12 5 -6 -9 -9 -9 -5 5 7 8 5 2 -3 1 4 5 4 4 5 6 10 10 10 10 10 9 6 6 5 1 -0 -0
14 14 14 10 8 12 14 14 14 13 12 11 6 -5 -7 -8 -8 -6 -1 4 3 2 -3 -1 2 4 4 3 4 4 5 9 10 9 10 9 6 8 5 3 -3 -7 -7
14 13 14 14 11 12 13 12 12 13 9 7 7 -0 -6 -6 -6 -7 0 3 1 -3 -3 1 2 3 3 3 3 4 5 9 9 9 10 9 2 5 3 -0 -4 -9 -9
14 14 13 13 14 14 14 14 9 4 3 3 6 5 -5 -3 -2 -4 -5 -5 -4 -3 -1 2 3 3 3 3 3 4 6 7 8 8 9 8 4 1 -1 -3 -8 -10 -11
14 14 14 13 13 13 13 12 9 3 2 4 11 5 -3 8 9 5 1 -1 -2 -1 0 3 4 4 4 3 4 5 5 5 6 7 6 6 1 -5 -5 -11 -12 -11 -13
11 14 14 14 13 13 12 11 11 9 12 10 11 11 6 10 11 10 4 1 -1 -0 2 3 5 7 5 4 4 5 4 5 4 5 5 5 4 -9 -8 -11 -13 -13 -14
14 11 12 14 14 13 13 12 11 11 13 12 13 12 10 10 11 11 9 9 8 3 9 9 10 8 8 6 5 5 5 4 3 3 3 5 3 -7 -9 -12 -13 -13 -13
13 13 12 10 12 13 14 12 12 11 12 13 12 12 11 10 11 11 12 11 11 9 11 11 11 11 10 6 5 4 5 4 3 3 3 3 2 -4 -10 -11 -12 -13 -13
12 12 13 10 9 11 14 14 13 13 13 13 13 13 12 10 11 11 10 12 11 11 10 10 11 11 10 7 5 4 4 4 4 3 2 1 -1 -3 -8 -11 -12 -11 -13
6 7 13 13 12 11 11 14 13 13 14 14 13 13 13 12 11 10 10 10 11 12 11 10 10 10 10 8 6 4 4 5 5 4 2 1 -1 -3 -5 -9 -11 -12 -12
2 3 5 7 12 14 13 13 13 12 13 14 14 13 13 13 13 12 10 9 9 11 11 11 11 10 10 9 6 4 4 5 5 5 4 2 -1 -4 -5 -5 -9 -12 -13
-2 -0 1 2 3 6 10 13 13 12 10 12 13 14 13 13 12 13 12 11 10 10 11 11 10 10 10 9 6 5 4 4 5 6 6 4 0 -3 -5 -6 -7 -10 -13
-1 -0 0 0 1 1 1 7 10 11 11 10 7 8 12 13 12 11 11 11 11 11 11 11 11 10 10 10 7 6 3 3 4 6 6 6 4 0 -4 -5 -6 -9 -11
-2 -2 -2 -2 -1 0 1 1 5 7 9 8 7 4 5 10 14 13 12 10 10 11 11 11 11 10 10 10 8 6 3 3 4 6 6 6 5 4 -1 -4 -5 -7 -10
-0 -2 -3 -3 -2 -1 0 1 1 3 5 11 10 5 1 3 9 13 13 13 10 10 11 11 11 11 10 10 9 6 4 5 5 5 6 6 5 4 3 -3 -5 -6 -8
1 -1 -1 -2 -3 -4 -4 -1 1 1 2 6 11 10 9 8 6 6 11 12 12 13 12 11 11 11 11 11 10 8 6 6 6 4 4 4 4 3 3 0 -3 -5 -7
2 -1 -1 -1 -0 1 -1 -3 -4 -4 -2 1 6 8 10 11 11 9 8 9 11 12 12 12 12 11 11 11 10 9 8 7 5 5 4 4 2 2 1 2 -1 -4 -5
3 1 0 -0 -0 1 2 2 1 -0 -2 -3 -3 -1 3 8 10 10 10 10 12 11 11 11 11 11 11 11 11 10 9 8 7 5 3 4 4 3 1 -1 -2 -3 -4

GFSSE_850_dewp_057.txt.gz
Dewpoint
15 10 12 12 11 11 12 11 12 13 13 13 13 13 12 13 12 10 7 6 7 9 4 5 8 7 10 12 11 10 9 9 9 7 0 -7 -8 -6 -2 -0 5 9 10
13 11 12 13 13 11 11 12 13 13 14 14 13 14 13 12 7 3 2 4 12 10 10 5 -4 -4 4 10 10 9 8 7 6 6 1 -1 -1 0 -1 -3 -2 3 4
10 8 12 12 13 10 12 14 13 14 13 13 11 12 11 5 -4 2 1 7 13 13 11 8 -2 -5 2 5 9 8 5 7 9 8 8 7 6 8 8 6 1 1 2
11 10 13 15 13 13 13 13 13 14 13 13 6 8 4 6 7 6 4 12 13 13 11 8 -7 -8 -3 3 3 3 4 9 10 11 10 10 11 10 11 11 10 9 8
11 9 12 16 13 14 13 12 13 13 13 2 1 2 1 12 12 10 11 13 13 12 11 7 -8 -9 -7 -4 -2 0 7 10 9 9 10 11 11 12 12 11 10 10 10
13 12 13 15 13 14 13 13 13 12 4 -0 -1 -5 7 12 13 12 13 13 12 11 11 1 -6 -4 -0 1 1 6 9 11 11 9 10 11 12 11 12 12 11 11 12
15 14 13 12 14 14 14 14 13 13 8 3 -2 -9 4 11 11 11 12 13 11 11 10 -4 -3 0 3 4 4 7 8 10 11 10 10 10 11 10 9 8 7 7 8
15 15 13 11 14 15 14 14 13 13 8 -3 -3 -9 -4 4 8 10 10 11 10 11 2 -4 -0 2 3 3 4 6 9 10 10 10 10 10 9 8 6 3 2 1 6
15 15 14 10 14 14 14 14 13 13 8 -3 -4 -8 -9 -9 -2 5 6 7 9 5 -1 -3 1 3 3 2 3 5 9 10 10 9 10 8 8 6 5 3 -1 -2 -1
14 14 12 11 12 13 14 14 14 13 11 5 -0 -8 -8 -9 -9 -5 2 2 1 -1 -3 -2 1 2 2 2 2 3 7 9 9 8 8 9 8 4 2 -1 -5 -9 -9
14 13 13 10 9 10 13 14 13 12 8 5 1 -6 -8 -8 -8 -7 -3 -1 0 -1 -4 -1 1 2 2 2 2 3 4 5 7 7 8 9 8 1 -1 -5 -9 -11 -13
14 14 13 13 13 9 10 10 10 5 3 0 -0 -0 -6 -6 -6 -7 -4 -3 -3 -4 -4 -0 1 2 2 2 3 3 4 6 6 6 6 7 6 2 -6 -8 -12 -13 -14
14 14 13 13 13 12 11 11 11 7 1 -0 1 3 -3 -4 -1 -4 -4 -4 -4 -4 -3 -1 1 3 2 2 2 4 4 4 5 5 4 3 2 -2 -9 -12 -14 -14 -15
14 14 13 13 13 13 13 13 10 8 3 7 3 7 5 1 5 7 6 0 -1 -2 -1 2 2 4 3 2 2 4 4 4 4 4 3 3 2 2 -9 -14 -15 -14 -14
14 14 13 13 13 13 13 12 10 9 9 11 10 11 11 8 7 10 10 7 3 1 -1 2 4 7 7 4 4 4 4 4 4 3 3 2 3 3 -4 -13 -15 -15 -15
13 12 13 14 13 13 13 13 11 10 10 13 12 12 12 11 9 10 10 9 8 8 7 5 8 10 10 8 7 5 4 4 4 4 3 3 2 1 -0 -10 -13 -15 -15
12 12 12 10 12 12 13 13 12 11 11 12 12 12 12 12 10 10 11 9 9 11 10 9 10 11 11 11 10 6 4 4 4 4 4 4 3 1 -2 -6 -11 -13 -15
6 12 12 13 13 12 11 12 13 12 12 12 12 13 13 12 12 10 10 10 9 11 11 11 10 10 11 11 10 8 5 4 4 4 4 4 4 3 -1 -3 -8 -10 -13
2 3 4 8 10 12 13 13 12 12 13 13 13 13 13 13 13 12 11 10 10 10 11 12 11 10 10 10 10 9 7 4 4 4 4 5 5 4 2 -3 -5 -7 -11
-3 -0 2 2 3 4 8 12 13 13 13 13 12 12 12 13 13 11 11 10 11 10 10 10 11 11 11 10 10 10 8 5 4 4 4 5 6 5 4 -0 -4 -5 -8
-3 -3 -1 -0 1 2 3 4 7 11 12 11 12 11 12 12 11 13 12 11 11 12 11 10 10 11 11 11 10 10 9 6 4 4 4 4 5 6 6 4 -1 -4 -5
-2 -2 -1 -0 0 1 1 1 1 3 5 8 9 9 10 10 10 9 10 12 12 12 12 11 11 11 11 11 11 10 8 6 5 4 4 4 5 5 6 5 3 -3 -5
-3 -3 -3 -3 -2 -2 -2 -0 1 1 2 3 5 8 10 10 9 8 10 11 11 11 11 11 11 11 10 9 10 10 6 6 5 5 4 4 5 5 5 5 4 1 -3
-2 -2 -3 -3 -3 -3 -3 -1 0 1 1 2 2 4 10 11 10 9 8 9 10 10 10 10 11 10 9 10 10 11 10 7 6 5 5 5 5 5 4 3 2 1 -2
0 -1 -1 -1 -0 -0 -1 -2 -3 -4 -4 -4 -2 1 5 7 10 10 10 8 7 8 8 9 10 10 11 11 11 11 10 9 7 6 6 6 5 4 4 3 2 1 -0
3 2 1 -1 -1 -0 -0 -1 0 -0 -1 -1 -2 -3 -3 0 4 6 9 9 9 9 9 9 9 9 11 11 11 11 11 10 9 7 6 5 5 4 4 2 2 2 0

GFSSE_850_dewp_060.txt.gz
Dewpoint
14 8 11 11 11 11 11 11 11 12 12 12 12 12 10 12 11 6 5 7 6 4 7 9 9 9 13 13 11 9 9 9 9 6 -2 -7 -6 -3 -3 7 11 11 8
12 8 10 10 10 12 12 12 13 13 13 13 13 13 13 10 5 2 4 11 8 10 6 -2 -5 4 11 10 9 8 8 8 6 2 -2 0 1 1 -3 -2 3 3 0
13 10 11 13 12 13 12 13 13 13 12 13 12 10 9 -0 -2 1 7 13 12 11 9 -5 -8 -5 6 9 8 7 7 6 6 4 3 7 7 8 7 2 1 1 2
13 10 12 14 13 12 13 13 12 10 10 10 7 7 -0 5 3 4 11 13 13 12 10 -8 -10 -0 3 5 6 6 6 6 6 8 10 10 10 12 11 10 10 8 9
10 10 12 13 12 13 14 12 12 9 11 3 2 -1 10 9 8 7 13 13 13 11 8 -8 -10 -6 1 2 3 5 5 6 7 8 10 11 13 12 11 10 10 10 13
10 11 15 15 14 12 12 11 11 9 4 -1 -3 1 10 12 11 13 13 13 12 9 6 -6 -4 -3 -4 -3 2 5 8 9 9 10 11 12 12 12 12 11 11 11 12
10 11 15 15 14 13 12 12 12 7 -1 -2 -4 3 10 8 11 11 12 10 10 9 1 -4 -1 1 1 2 5 6 8 10 9 9 10 10 11 10 8 8 6 7 8
12 12 14 13 15 14 13 13 13 9 -3 -8 -6 5 10 7 6 7 5 10 9 9 -2 -3 0 1 1 2 4 5 6 8 9 8 9 9 8 7 4 2 1 0 5
14 14 10 12 14 14 14 13 14 11 1 -9 -9 -9 -0 5 7 6 6 8 7 5 -3 -2 1 1 2 2 3 6 7 8 7 7 7 6 5 3 2 0 -3 -5 -2
15 15 14 11 14 14 14 14 12 12 6 1 -6 -9 -10 -8 -1 5 5 6 7 2 -2 -1 1 1 1 1 2 4 7 7 7 7 6 7 5 -1 -2 -5 -8 -12 -12
14 14 12 11 12 13 11 11 13 11 7 2 -1 -7 -8 -9 -9 -6 1 4 4 1 -2 -1 2 2 1 1 2 3 5 6 4 5 6 7 7 5 -2 -9 -12 -14 -14
14 13 13 10 9 10 10 9 10 7 7 3 1 -1 -7 -7 -7 -8 -5 -2 1 1 -3 -0 2 3 2 2 3 3 4 5 5 4 4 5 5 4 0 -8 -14 -15 -15
14 13 13 13 13 9 6 7 8 8 5 2 1 2 -3 -6 -6 -5 -6 -5 -4 -4 -4 -2 1 2 2 2 3 3 5 5 5 4 4 4 3 2 -1 -9 -13 -15 -15
13 13 13 13 13 13 11 10 10 8 7 2 0 3 3 -4 -2 0 0 -0 -1 -3 -3 -2 0 3 3 3 3 3 4 4 5 5 4 3 2 2 1 -5 -13 -15 -15
14 13 13 13 13 13 13 12 11 9 7 7 8 6 7 6 4 5 6 8 7 2 -1 -1 1 3 4 5 3 3 3 4 4 4 4 3 3 2 2 -0 -9 -14 -15
14 14 13 13 13 13 12 13 12 11 9 10 11 11 10 10 10 9 8 8 9 8 7 7 3 6 7 8 7 5 4 4 4 4 4 3 3 3 2 0 -4 -12 -14
11 11 13 13 13 13 12 12 12 12 10 10 11 12 12 12 11 11 9 9 9 9 9 9 9 8 8 10 10 9 9 6 4 4 4 4 4 4 3 1 -2 -7 -11
9 10 12 12 13 13 13 12 12 12 11 11 11 12 12 12 12 12 11 10 10 10 10 10 10 10 9 10 11 10 10 9 5 3 4 4 4 4 4 3 -0 -4 -8
2 4 7 12 12 13 13 13 13 13 12 12 12 12 12 12 12 12 12 11 10 10 10 10 11 11 11 10 10 10 11 10 9 5 3 4 4 4 4 4 3 -1 -5
-2 0 3 4 6 6 10 12 13 13 13 13 13 13 13 12 12 13 12 11 12 12 11 10 10 11 12 11 11 10 10 10 10 9 6 3 4 4 4 5 4 2 -2
-3 -3 -2 1 2 3 3 6 8 10 12 13 13 13 13 13 13 12 11 11 10 11 11 11 11 10 11 11 12 11 11 10 10 9 8 5 4 3 4 5 4 4 1
-3 -3 -2 -0 1 1 2 3 3 3 6 7 8 11 12 12 11 11 10 10 10 10 11 11 12 12 11 11 11 11 10 10 10 9 9 7 5 4 4 4 4 4 3
-2 -2 -2 -2 -1 -0 0 0 1 1 1 2 3 5 8 10 12 12 11 9 8 10 10 10 11 12 12 11 11 11 10 9 9 8 7 7 6 5 4 4 5 5 3
-2 -3 -3 -3 -3 -3 -3 -2 -2 -1 -0 1 2 2 2 2 3 6 8 8 9 8 9 9 9 9 10 11 11 11 11 10 8 7 7 6 6 4 3 2 3 4 4
-1 -2 -3 -2 -2 -1 -2 -3 -3 -3 -3 -2 -1 -1 -1 -1 3 7 9 9 9 8 8 8 8 9 8 9 10 10 10 11 10 9 8 9 8 7 6 4 3 3 3
-0 -1 -1 -1 -1 -1 -1 -1 -2 -2 -2 -2 -2 -3 -3 -3 -2 0 2 5 7 8 8 9 9 9 9 10 9 9 10 10 10 10 9 9 8 7 7 7 6 6 3

GFSSE_850_dewp_063.txt.gz
Dewpoint
10 13 13 10 11 12 12 12 11 11 12 12 12 10 10 10 7 4 7 5 5 10 9 9 9 10 13 13 11 9 9 9 8 5 -2 -6 -5 -4 6 12 9 7 3
7 12 10 10 10 11 12 11 12 12 12 13 13 10 10 6 3 3 10 8 9 4 -2 -4 6 11 12 10 9 9 9 8 6 -0 -2 1 3 -1 -4 -0 -1 -2 -2
8 10 10 9 10 12 12 13 13 13 14 13 7 7 1 -2 -1 5 12 10 10 9 -5 -10 -8 8 10 10 9 9 8 5 3 1 4 7 8 8 5 3 3 6 7
8 9 11 11 13 13 12 13 14 13 12 9 6 -2 3 2 4 10 13 12 11 8 -8 -11 -3 0 8 9 8 6 4 2 6 9 9 10 12 12 9 10 9 10 12
12 9 14 13 13 12 13 12 12 10 9 3 -1 -0 7 6 8 12 13 12 11 6 -8 -11 -4 1 3 4 4 2 -1 3 6 10 11 12 12 11 10 10 11 12 12
12 11 14 13 12 13 13 11 11 5 3 -2 -5 6 8 9 9 13 13 12 10 4 -6 -6 -7 -5 -1 -0 -1 0 4 6 9 10 11 12 12 12 11 11 11 12 12
10 12 14 13 12 13 12 11 9 1 -6 -4 2 12 13 10 12 12 12 12 6 3 -5 -2 -1 -2 -2 -1 3 5 7 8 7 9 10 11 11 9 6 6 4 4 8
10 12 15 14 14 13 12 11 10 3 -7 -7 -2 12 9 12 12 11 10 8 7 3 -4 -1 0 1 1 3 4 4 6 7 6 7 8 8 7 5 2 1 -1 -2 1
10 10 14 14 14 14 13 12 9 7 -5 -9 -9 -7 1 10 9 8 7 9 8 4 -3 -0 1 2 2 3 4 5 6 6 6 5 5 5 3 1 0 -2 -4 -7 -4
12 11 10 12 14 14 14 13 10 8 1 -6 -9 -10 -9 -5 3 6 7 8 8 5 -2 -0 2 2 3 3 5 6 7 7 7 6 5 6 6 4 -1 -5 -8 -11 -12
15 15 14 10 13 13 12 12 11 10 7 2 -0 -8 -9 -9 -8 -2 3 3 4 2 -1 -2 2 2 2 3 4 7 7 6 6 4 5 6 6 4 2 -5 -10 -14 -14
15 14 13 12 13 12 12 11 10 10 9 7 5 0 -7 -7 -8 -7 -3 1 2 1 -1 -3 0 2 2 2 3 4 6 7 6 6 6 6 6 4 2 -2 -9 -15 -15
14 13 12 11 11 11 11 11 10 9 7 5 4 2 0 -6 -6 -6 -6 -2 -0 0 -1 -4 -1 0 2 2 2 3 4 5 6 5 5 5 5 4 2 1 -5 -13 -15
14 13 13 13 12 12 9 9 9 10 9 8 3 2 2 2 -5 -4 -5 -4 -3 -3 -4 -4 -3 0 2 2 2 2 2 3 4 4 4 4 4 4 3 2 0 -9 -14
14 13 13 13 13 13 12 11 11 11 9 7 5 5 3 4 -1 0 4 5 7 6 2 -1 -1 0 2 3 4 3 3 3 3 4 4 4 4 4 4 3 2 -2 -11
14 13 13 13 13 12 12 12 11 12 11 9 9 9 9 8 9 8 7 7 7 8 8 7 7 3 4 5 7 7 5 4 3 4 4 4 4 4 4 4 3 1 -5
13 13 13 13 13 13 12 12 12 12 12 10 9 10 11 11 11 11 11 10 9 9 10 9 9 9 8 8 9 9 9 9 9 8 5 4 4 4 4 4 4 3 -0
11 12 13 13 13 13 13 13 13 12 12 11 10 10 11 11 12 12 12 11 11 10 10 10 10 10 10 10 10 9 9 10 10 10 9 6 4 4 4 4 4 4 2
4 9 12 13 13 13 13 13 13 13 13 12 12 11 11 11 11 12 11 11 12 12 11 11 11 11 10 10 11 11 11 11 10 10 10 9 7 4 3 4 4 4 4
-1 2 4 9 12 13 13 14 14 13 13 13 13 12 12 12 12 12 12 12 12 13 12 12 11 11 11 11 11 11 11 11 11 11 10 10 9 8 6 3 3 4 4
-3 -3 -0 3 4 7 11 12 12 12 12 13 12 13 13 13 13 13 13 13 13 13 12 11 12 12 11 11 11 11 11 11 11 10 10 10 10 9 9 6 3 3 4
-3 -3 -2 -2 1 2 3 4 5 7 9 9 11 13 13 13 13 13 12 11 11 11 10 10 10 12 12 11 11 11 11 10 10 9 9 9 9 9 9 9 6 3 3
-2 -2 -2 -2 -1 -0 1 1 2 3 4 4 5 6 7 9 11 11 11 12 11 11 11 8 9 11 11 11 11 11 10 9 9 9 9 8 8 7 7 7 6 4 3
-2 -2 -2 -2 -2 -2 -2 -2 -1 -0 0 1 1 1 1 2 3 3 3 5 8 8 7 8 8 9 9 9 10 10 11 11 11 10 9 9 8 7 7 6 6 5 4
-2 -2 -2 -3 -3 -3 -2 -1 -1 -2 -2 -2 -2 -2 -1 -1 -0 0 1 3 5 8 8 8 8 8 9 10 9 10 10 10 10 9 9 8 9 9 8 8 7 6 5
-0 -0 -1 -2 -2 -2 -1 -1 -1 -0 -1 -1 -2 -2 -2 -2 -2 -3 -3 -2 1 5 7 7 7 9 9 9 9 9 9 9 9 9 9 9 9 8 7 7 8 7 8

GFSSE_850_dewp_066.txt.gz
Dewpoint
10 12 14 12 12 12 12 12 11 11 11 11 11 10 8 6 3 8 2 4 9 7 8 8 8 10 12 12 10 10 9 8 6 2 -4 -4 -4 2 9 6 3 -1 1
7 13 11 10 10 12 12 11 10 11 12 12 10 9 6 1 3 7 7 6 1 -2 -1 5 9 11 12 11 10 9 9 7 3 -2 -0 3 3 -1 -1 -1 0 2 -1
9 12 11 10 11 12 11 12 12 13 13 13 5 4 0 -1 6 10 8 9 7 -5 -11 -9 5 11 10 9 9 9 6 2 -0 2 5 9 9 8 7 6 8 10 11
8 9 11 10 10 12 11 13 13 14 13 10 4 1 1 2 8 12 11 11 7 -7 -11 -8 -4 9 9 9 8 5 2 2 6 8 10 11 10 9 9 10 12 13 12
7 8 10 11 14 13 11 13 10 9 10 7 2 5 4 7 10 13 12 11 6 -7 -10 -5 -1 3 5 4 3 0 1 4 9 10 12 11 11 11 10 11 12 12 11
8 9 11 14 13 11 12 11 9 5 1 -0 0 6 7 8 11 13 12 11 4 -5 -5 -6 -4 -1 -0 -1 -2 3 5 8 10 11 11 11 12 11 11 10 11 12 12
10 11 13 13 12 12 12 11 9 2 -6 -3 9 12 9 8 12 12 11 9 5 -3 -3 -1 -3 -3 -3 -1 3 4 5 6 7 9 10 10 9 7 3 3 1 2 11
11 13 14 13 11 13 12 11 9 -1 -6 -6 3 14 13 12 13 10 8 6 5 -1 -3 -0 0 -0 0 3 5 6 7 6 5 6 6 5 5 1 0 -2 -4 -5 -1
11 12 14 13 12 12 12 11 9 2 -6 -6 -5 -1 8 13 13 8 7 7 6 1 -3 0 1 1 2 4 4 5 6 7 7 5 5 6 5 2 -2 -5 -9 -12 -12
12 12 14 14 14 13 13 12 9 5 -2 -7 -8 -8 3 4 4 4 6 6 4 2 -3 -0 2 2 2 3 4 5 7 6 7 6 6 6 6 5 3 -2 -7 -12 -15
12 12 13 13 13 12 13 11 10 8 5 1 -2 -7 -6 -3 -0 2 3 4 5 3 -1 -3 1 2 1 1 2 3 5 6 6 6 5 6 5 5 3 1 -5 -11 -15
14 14 13 11 14 13 11 10 8 8 8 7 6 3 -5 -7 -7 -5 -2 2 2 3 0 -2 -0 2 2 1 1 2 3 4 4 4 5 5 5 5 4 2 1 -7 -14
14 14 13 12 13 13 12 11 10 8 8 7 6 4 3 -5 -6 -6 -6 -5 -2 0 0 -0 -3 0 2 2 1 2 2 4 4 5 5 5 5 5 4 3 2 0 -9
14 13 12 11 12 13 13 12 11 9 8 8 6 4 2 3 -3 -5 -5 -5 -3 -2 -3 -3 -3 -2 1 2 2 2 2 3 4 5 4 4 5 5 5 4 3 3 -1
13 13 12 12 11 12 12 11 10 9 10 8 7 5 4 3 4 -2 -0 2 4 6 5 3 1 -0 0 2 3 4 4 4 4 4 4 4 4 4 4 4 4 4 2
13 13 12 12 12 12 12 11 11 11 11 10 8 9 9 7 7 7 6 6 7 8 9 8 8 7 7 4 5 5 7 7 6 5 5 5 4 4 4 4 4 4 4
13 13 12 12 12 12 12 12 12 12 12 11 9 9 10 11 11 11 11 11 10 9 10 10 10 9 9 9 9 9 8 9 9 9 9 9 9 6 4 3 3 4 4
12 11 12 13 13 13 13 13 13 13 12 12 11 10 10 10 11 11 12 12 12 11 11 10 10 10 10 10 10 10 10 10 10 10 10 9 9 9 8 5 3 3 4
10 11 12 13 13 13 14 13 13 13 13 13 12 12 11 11 11 11 11 11 12 12 12 12 12 12 11 11 11 11 11 11 11 11 11 11 10 10 10 9 6 4 3
3 7 11 12 12 12 13 13 13 14 14 13 13 12 13 12 12 12 12 12 13 13 13 13 13 12 12 11 11 11 11 11 11 11 11 11 10 10 10 10 9 8 4
-2 -1 3 7 9 11 12 12 12 13 13 13 12 12 12 12 12 13 13 13 12 13 12 12 12 11 11 11 12 11 11 11 11 10 10 10 10 10 9 10 9 8 7
-2 -3 -3 -0 2 5 8 8 11 12 12 11 10 11 12 11 13 13 13 13 13 12 11 11 11 12 10 9 12 11 10 10 9 9 9 8 8 9 9 9 8 7 6
-2 -2 -2 -2 -2 -0 1 2 4 5 5 7 9 10 10 12 13 12 12 11 12 12 12 12 11 11 9 9 11 11 10 10 9 9 9 8 9 8 8 8 7 7 6
-2 -2 -2 -2 -2 -2 -1 -1 -1 -0 0 1 2 2 2 2 2 2 3 4 3 4 6 9 10 9 10 8 9 9 10 11 10 9 9 8 8 7 7 8 8 8 8
-2 -2 -2 -2 -2 -2 -3 -3 -2 -2 -2 -2 -1 -1 -2 -2 -1 -1 0 0 0 2 4 6 8 10 9 9 9 10 9 10 9 9 9 8 8 7 8 8 7 7 7
-1 -1 -1 -1 -2 -2 -2 -2 -2 -2 -1 -1 -1 -1 -1 -1 -1 -1 -2 -2 -3 -3 -2 2 6 9 9 9 10 9 9 9 8 9 8 8 8 8 6 5 5 6 6

GFSSE_850_dewp_069.txt.gz
Dewpoint
9 11 13 12 12 12 12 12 12 12 11 11 11 8 5 2 8 1 7 8 6 6 7 8 9 9 12 11 10 9 8 6 1 -4 -3 -3 -1 1 -1 -1 -0 1 5
7 14 14 12 13 12 12 11 10 11 11 11 9 5 0 5 5 7 4 1 -4 -1 4 6 8 9 12 10 9 9 6 1 -2 -1 4 5 3 2 2 6 9 9 -1
8 14 12 13 11 12 12 10 10 12 12 5 3 1 -1 7 9 7 8 4 -6 -12 -10 -4 8 9 9 9 9 6 1 -1 3 6 10 10 8 8 8 11 12 12 10
10 13 11 12 13 12 10 12 13 14 14 6 2 1 3 8 10 9 9 4 -8 -12 -9 -7 5 9 8 8 5 1 0 7 8 11 11 9 8 9 12 12 12 12 10
9 11 14 13 13 10 12 12 14 12 11 6 4 4 7 9 12 12 11 4 -6 -9 -6 -3 0 6 5 3 -1 -0 3 7 10 11 10 11 11 11 11 11 11 11 10
8 12 15 12 13 11 12 11 8 7 5 5 5 5 7 10 12 12 10 4 -4 -5 -6 -4 -2 -1 -0 -2 2 4 7 9 11 11 10 11 10 9 7 6 5 8 11
9 12 12 15 13 11 11 10 7 3 -3 -1 8 6 7 10 13 12 10 4 -3 -3 -2 -3 -3 -2 -1 1 3 4 5 6 8 9 8 8 8 6 1 -1 -3 -2 7
9 12 13 15 13 11 11 10 5 0 -4 -4 10 10 8 12 14 11 9 5 1 -3 -1 -0 -1 -0 1 3 3 4 4 4 4 5 5 4 3 0 -3 -6 -9 -11 -9
10 13 13 13 12 13 12 10 7 -1 -5 -7 -1 11 14 14 14 9 7 4 2 -3 -1 0 0 0 2 3 4 5 5 5 4 4 5 5 4 3 1 -4 -9 -13 -14
12 14 14 13 12 12 12 11 10 2 -6 -7 -6 -6 -0 5 1 5 5 5 5 1 -3 -0 1 1 1 1 1 2 3 3 4 4 3 4 4 3 2 1 -4 -11 -14
13 13 14 13 14 13 12 12 11 6 -0 -6 -7 -6 -2 1 2 4 3 4 4 2 -1 -2 1 1 1 1 1 2 3 4 4 5 4 5 5 4 3 2 1 -3 -12
13 13 14 14 14 13 11 10 10 9 7 4 3 1 -6 -6 -5 -4 -1 1 2 2 0 -2 -2 1 2 2 2 2 2 3 4 4 5 5 5 5 4 3 3 1 -5
13 13 13 14 13 13 11 10 9 8 8 8 7 5 3 -2 -6 -6 -6 -5 -3 0 1 0 -2 -2 1 2 2 2 2 3 3 4 4 4 4 5 5 4 3 3 2
14 14 14 13 12 13 13 12 11 9 8 7 7 5 3 2 1 -4 -5 -5 -4 -1 -1 -2 -3 -3 -1 1 3 3 3 3 3 3 4 4 4 4 5 4 4 4 4
14 14 13 12 12 13 13 12 11 9 9 9 8 6 4 3 3 4 -2 -0 0 3 6 6 4 2 1 1 2 3 4 5 5 5 5 4 5 4 4 4 4 4 4
13 13 12 12 11 11 12 11 10 10 11 11 8 7 9 8 6 7 4 5 6 7 8 9 9 8 8 8 8 7 8 8 8 8 8 8 9 9 7 5 4 4 4
11 13 13 12 12 12 12 12 11 11 12 11 11 9 9 10 11 11 11 11 11 10 10 10 10 10 10 10 10 10 10 10 10 10 9 9 10 10 9 8 6 4 4
11 13 13 13 12 12 12 12 12 12 12 12 12 11 10 10 10 11 11 12 12 12 12 12 11 11 11 11 11 10 11 11 10 10 10 11 11 10 10 10 9 7 4
11 12 13 13 13 13 13 13 13 13 13 13 13 12 12 12 11 11 11 11 12 12 12 12 12 12 12 12 12 11 11 11 11 11 11 11 11 11 10 10 10 9 7
10 10 10 12 12 12 13 13 13 13 13 13 13 13 13 13 13 12 12 12 12 12 13 13 13 12 12 12 11 10 10 10 10 10 10 10 10 10 10 10 10 10 9
8 6 5 7 8 9 10 11 11 11 11 12 13 13 13 13 13 13 12 12 13 12 12 12 12 11 11 10 11 10 8 7 9 10 9 8 8 8 9 9 10 10 9
-2 -1 -1 -0 3 5 7 9 9 9 8 10 12 12 12 11 12 12 12 12 12 12 12 12 12 12 12 11 12 10 11 9 8 9 8 8 8 8 8 9 8 8 8
-2 -2 -2 -2 -1 1 3 6 7 6 6 7 8 9 9 10 11 11 11 11 11 11 10 10 11 12 12 12 10 10 10 8 8 9 8 7 7 7 8 7 7 7 8
-2 -2 -2 -1 -1 0 1 1 1 0 1 1 1 2 3 4 4 4 4 3 3 4 4 4 6 9 12 11 10 9 8 10 10 9 9 8 8 7 7 7 7 7 8
-2 -2 -1 -2 -2 -2 -2 -2 -2 -2 -2 -2 -2 -2 -1 -1 -1 -1 -1 -1 -1 -1 -0 -0 1 4 8 11 11 9 9 10 10 9 9 8 7 7 6 6 6 5 6
-1 -1 -1 -1 -1 -2 -2 -2 -3 -3 -3 -2 -2 -1 -1 -1 -1 -1 -1 -1 -1 -1 -2 -2 -2 -0 4 10 11 10 9 10 9 8 8 7 7 6 6 5 5 5 5

GFSSE_850_dewp_072.txt.gz
Dewpoint
12 15 13 11 11 13 13 13 13 13 12 11 10 6 4 6 1 7 7 7 7 12 12 11 11 11 12 10 9 8 3 -2 -2 1 -1 -0 1 1 4 8 11 9 -3
13 15 14 12 12 13 13 13 12 11 11 10 8 2 5 4 5 3 -0 -3 1 5 5 7 8 11 10 9 8 4 -2 -2 3 8 7 6 6 6 11 11 12 8 -3
14 16 13 12 13 13 13 12 11 12 7 5 3 0 7 7 8 8 1 -8 -11 -11 -5 7 8 9 9 8 4 -2 0 6 9 11 9 12 9 12 12 12 11 9 1
15 16 15 13 13 14 12 11 12 12 5 3 1 3 8 9 9 8 1 -9 -11 -8 -6 5 8 8 6 3 -2 -0 8 9 11 11 13 12 12 11 12 11 11 9 10
15 15 15 12 14 13 11 12 14 9 8 4 3 6 9 12 12 8 1 -7 -8 -4 -4 2 6 4 2 -2 1 3 7 10 10 13 13 13 13 10 8 7 11 11 11
15 15 14 14 13 11 12 12 10 7 5 5 4 7 10 12 12 8 1 -4 -5 -5 -3 -1 -1 -1 -2 1 2 6 8 10 12 12 12 11 11 4 2 0 2 9 12
14 15 14 14 13 12 12 10 8 2 -2 5 5 7 9 12 12 8 4 -1 -3 -3 -4 -4 -3 -2 0 1 3 4 5 7 11 11 11 11 2 -2 -4 -6 -7 -5 4
15 16 14 15 13 11 11 10 4 -2 -2 2 7 6 9 12 14 10 5 2 -3 -1 -1 -2 -2 -1 1 2 3 3 3 3 9 10 7 8 2 2 -1 -6 -10 -14 -14
15 16 14 15 13 12 11 10 4 -3 -2 4 9 7 11 13 14 10 7 5 1 -2 -0 -0 -0 -0 1 1 1 2 3 3 10 6 5 10 3 2 1 -0 -6 -12 -15
15 16 15 14 13 13 12 11 8 -2 -4 1 1 6 9 7 3 6 6 5 4 -1 -2 0 1 1 1 1 1 2 3 4 10 5 9 7 4 3 3 1 1 -4 -12
15 15 15 15 15 14 14 11 10 3 -5 -5 -2 -3 -1 9 4 5 5 6 5 4 -1 -2 1 1 1 1 1 2 2 7 9 9 9 5 4 4 3 3 2 1 -4
15 15 15 15 15 14 13 12 12 8 3 0 -1 -4 5 3 6 1 2 3 4 3 2 -1 -2 0 2 2 2 2 3 3 5 7 8 4 4 4 4 3 3 3 2
14 14 15 15 15 14 14 14 13 12 9 8 7 5 3 -2 -6 -5 -4 -4 -2 1 2 2 1 1 0 2 2 3 2 2 4 4 4 3 3 4 4 4 3 4 4
13 13 13 14 14 14 14 13 14 13 10 9 7 6 5 3 2 -3 -4 -4 -5 -2 1 0 1 -1 -2 -1 1 2 3 3 4 5 5 4 3 4 4 4 4 3 4
14 13 14 14 14 13 14 14 14 13 9 10 9 8 6 5 3 5 3 -2 -1 -0 3 7 6 5 3 3 3 3 4 6 6 7 7 7 6 7 8 6 5 4 4
14 14 14 14 14 14 14 13 13 13 12 10 9 7 7 9 7 5 6 1 4 6 7 9 9 9 9 9 9 9 9 9 9 9 9 9 9 9 9 9 8 6 7
13 13 14 13 13 13 13 13 13 12 11 11 11 9 9 10 11 10 10 10 11 11 10 10 9 9 9 10 10 10 10 10 10 10 10 10 10 10 10 10 10 9 7
11 13 13 13 12 12 13 12 13 12 12 11 11 11 10 10 10 10 11 11 12 12 12 12 11 11 11 12 12 12 12 11 11 11 10 10 10 10 10 10 10 10 9
11 12 13 13 13 13 13 13 13 12 12 12 12 12 12 12 12 11 11 11 11 12 12 12 12 12 12 12 12 12 11 11 10 10 10 10 10 10 10 10 10 11 10
11 12 13 12 13 13 13 13 13 12 12 12 12 12 12 13 12 12 12 12 12 12 12 12 13 12 12 12 12 11 10 10 9 8 7 9 10 8 8 9 9 9 10
11 10 10 11 11 12 12 12 12 12 11 11 12 13 13 13 13 12 12 12 12 12 13 13 13 12 12 12 12 11 12 10 8 7 9 9 8 8 8 8 9 9 9
-0 7 8 8 9 10 10 10 10 10 11 11 9 12 12 12 12 12 12 12 12 12 12 12 12 12 12 13 12 12 11 8 8 8 8 8 8 8 8 8 7 8 7
-1 -2 -2 1 0 4 6 6 7 8 9 9 8 9 9 10 9 9 9 10 10 11 11 11 11 13 12 11 11 11 11 8 8 9 8 8 8 8 8 7 7 7 7
-1 -1 -2 -2 -2 0 3 4 6 7 6 4 3 3 3 2 3 4 5 6 5 5 4 3 4 4 5 9 10 11 11 10 10 9 8 8 8 8 8 8 5 6 7
-1 -1 -1 -1 -1 -0 1 1 0 -0 -1 -1 -1 -1 -1 -1 -1 -1 -0 -0 -0 -0 -1 -1 -1 -1 -0 3 10 10 10 11 10 9 9 8 7 6 7 7 6 5 5
-1 -2 -1 -1 -1 -1 -1 -1 -2 -2 -2 -2 -2 -2 -2 -2 -2 -1 -1 -1 -1 -1 -1 -2 -2 -2 -1 0 5 8 9 10 9 9 9 8 7 6 6 6 6 4 5

GFSSE_850_dewp_075.txt.gz
Dewpoint
15 12 11 10 11 14 13 13 14 13 12 11 8 8 4 7 9 8 8 12 15 14 13 12 11 11 10 9 6 -2 -4 -1 3 2 3 3 6 11 11 11 10 0 -6
15 12 11 11 11 13 13 13 13 12 11 10 4 6 4 3 2 0 1 4 6 6 8 8 9 10 9 7 -1 -3 0 8 9 8 10 9 12 12 11 11 7 -2 -4
15 15 12 12 12 13 13 12 11 11 6 6 2 5 10 7 4 -5 -11 -11 -11 -5 4 7 8 8 7 1 -1 4 8 11 10 11 11 12 12 12 11 11 8 9 9
15 14 15 12 12 13 13 10 11 5 4 2 3 8 12 8 6 -3 -10 -10 -9 -5 6 7 7 6 2 -3 1 8 10 10 11 12 12 12 13 8 8 10 10 11 12
15 15 14 13 12 13 10 11 11 6 5 2 6 8 11 12 8 0 -7 -6 -5 -4 4 5 4 0 -2 1 2 8 9 10 12 12 12 12 12 2 2 3 9 11 12
15 15 15 13 13 11 11 14 8 7 6 4 7 9 12 12 9 2 -5 -6 -5 -4 -0 0 -1 -2 -1 2 5 6 9 10 12 12 12 11 -2 -4 -5 -6 -4 4 10
14 16 14 13 13 11 11 9 6 5 3 5 7 10 13 13 8 2 -3 -3 -4 -4 -3 -2 -2 -0 0 2 2 3 5 9 11 11 11 6 0 -1 -5 -9 -13 -14 -7
14 15 14 15 13 12 11 9 4 -2 4 5 7 10 12 13 10 5 -0 -3 -2 -2 -3 -2 -1 0 1 1 2 2 2 5 11 11 11 5 2 1 -0 -3 -8 -13 -16
15 15 15 14 13 13 12 10 3 -3 2 6 6 9 14 13 12 8 4 0 -3 -1 -0 -1 -1 -0 1 1 1 2 3 5 11 10 10 10 3 2 1 0 -0 -6 -12
15 15 15 14 14 12 12 10 2 -1 1 6 7 8 13 9 2 6 4 3 0 -3 -1 0 0 0 1 1 1 1 2 5 11 10 11 5 3 3 3 2 2 1 -4
14 14 15 15 15 14 14 11 7 -0 1 4 3 1 6 11 5 5 3 4 3 2 -1 -2 -0 1 1 1 1 1 2 10 10 11 11 5 3 3 3 3 3 3 2
14 15 15 14 14 14 14 11 12 1 -2 7 7 -3 12 13 13 12 2 2 3 3 2 -0 -2 -1 2 8 6 2 5 9 9 10 10 4 3 3 3 3 3 3 3
14 15 15 14 14 14 14 13 13 13 11 10 11 11 10 10 6 -4 5 -3 -2 -0 2 3 1 3 10 4 6 7 5 2 7 9 9 4 3 3 3 3 3 3 3
15 15 14 14 14 14 14 14 13 13 13 12 12 12 11 9 8 9 9 10 5 9 11 12 11 10 9 4 8 8 8 4 6 8 8 6 5 4 6 6 5 4 3
15 14 15 14 14 14 14 13 13 13 13 13 13 12 12 11 11 10 9 8 8 7 8 10 11 10 9 9 9 9 9 9 9 9 8 7 8 7 8 8 8 7 6
14 14 15 15 15 14 14 14 14 13 13 13 13 13 9 11 10 7 10 5 5 5 9 11 11 11 11 11 11 11 11 11 11 10 10 9 9 9 9 9 9 9 8
15 15 14 15 14 14 14 14 13 13 13 13 13 13 9 9 10 9 9 12 10 10 11 11 11 11 11 11 11 12 12 11 11 11 11 11 10 9 9 10 10 10 10
14 14 15 15 14 14 14 14 14 13 13 13 13 14 13 11 9 9 10 11 12 12 12 12 12 12 12 12 12 12 12 12 12 12 12 12 12 10 10 9 10 10 10
14 14 15 15 14 14 14 14 14 14 14 13 14 14 14 14 13 11 11 12 12 13 13 12 13 13 13 13 12 12 12 12 12 12 12 11 11 12 11 10 10 9 10
13 14 14 14 14 14 14 14 14 14 14 14 14 14 14 14 14 13 13 13 13 13 13 13 13 13 13 12 12 12 12 11 12 12 10 10 10 10 11 9 9 9 9
11 13 14 13 13 14 14 14 14 14 14 14 14 14 14 14 13 14 13 13 13 13 13 13 12 12 12 12 12 12 11 12 11 10 10 10 9 10 10 8 8 8 8
0 9 11 13 14 14 14 13 14 14 14 14 14 11 12 12 13 12 12 13 13 13 13 12 13 13 13 13 12 11 10 9 8 8 9 9 9 9 8 7 8 7 7
-1 0 7 10 10 9 11 12 10 10 10 11 11 11 7 8 9 10 10 10 10 12 13 13 13 13 12 11 11 11 10 9 8 8 8 9 8 8 8 8 8 7 6
-2 -1 -1 -1 1 1 1 6 8 10 11 11 9 7 4 3 2 2 2 3 4 5 5 5 4 4 9 9 8 8 9 8 10 9 8 7 8 7 8 8 7 7 5
-1 -2 -1 -1 -2 -2 -0 3 5 7 7 5 1 -0 -1 -1 -1 -1 -2 -1 -1 -0 -0 -0 -0 -1 -1 -0 4 8 8 8 8 9 10 7 6 7 7 6 7 6 6
0 -1 -1 -1 -1 -1 -0 0 1 0 -1 -1 -2 -2 -2 -2 -2 -2 -2 -2 -1 -1 -1 -1 -1 -1 -0 0 1 7 9 10 9 10 9 9 7 7 6 6 6 6 5

GFSSE_850_dewp_081.txt.gz
Dewpoint
15 10 10 11 11 11 12 12 11 10 8 11 7 9 9 13 14 14 15 14 14 13 11 9 8 3 -7 1 7 5 6 10 11 12 12 12 9 6 6 5 0 -3 4
14 9 10 10 11 12 13 11 11 9 8 -0 10 6 6 8 12 14 14 13 11 9 6 5 3 -5 -0 8 7 9 10 10 11 11 11 9 11 9 9 10 10 8 -1
11 10 10 12 11 12 12 10 9 4 3 2 -1 -6 -4 0 3 6 7 8 7 2 3 3 -3 2 6 8 9 11 11 11 11 9 5 4 3 9 9 12 12 9 7
7 8 10 12 12 11 10 6 4 2 2 8 3 -2 -8 -12 -13 -11 -9 -6 1 3 1 -2 -4 4 6 7 9 11 11 11 11 10 6 -2 -5 -5 -3 9 11 10 10
7 8 12 12 12 10 8 3 2 3 4 9 9 1 -5 -8 -7 -9 -8 0 0 -0 -2 -3 -1 3 6 6 8 11 11 11 8 6 -1 -4 -7 -9 -10 -9 -2 6 6
8 10 13 13 12 9 7 3 3 4 5 8 12 4 -3 -6 -6 -6 -3 -1 -2 -3 -3 -2 0 2 4 5 7 10 10 10 7 4 0 -0 -2 -4 -7 -10 -13 -13 -8
9 12 13 13 11 9 7 5 4 3 4 7 12 4 -2 -4 -5 -5 -4 -4 -4 -3 -3 -2 -1 -0 1 3 4 6 6 5 5 5 3 1 1 0 -1 -4 -8 -12 -15
11 13 13 13 11 13 8 5 4 4 6 8 12 10 2 -2 -4 -4 -4 -4 -4 -4 -3 -2 -1 -1 -1 -0 0 2 7 7 6 4 5 3 2 2 1 1 -0 -5 -10
14 13 13 13 11 12 8 5 2 4 6 9 13 11 7 4 -1 -3 -3 -3 -3 -3 -3 -2 -2 -1 -1 -0 0 1 5 6 5 5 6 4 3 2 2 2 2 2 -1
16 13 13 12 11 9 8 3 3 4 5 8 11 11 3 2 0 -0 -2 -3 -2 -2 -2 -2 -1 -1 -1 -0 0 1 3 6 7 7 6 6 3 2 2 2 2 2 3
15 13 13 12 11 11 8 2 3 6 5 7 9 11 6 2 1 0 1 0 -1 -3 -3 -2 -2 -1 -1 -0 -0 0 2 5 6 7 7 5 4 2 2 2 2 2 2
14 13 14 12 12 12 9 4 1 6 6 6 7 9 9 6 5 3 1 0 0 -0 -0 -1 -2 -3 -3 -0 1 1 2 3 3 5 5 5 5 4 3 3 4 4 3
13 13 13 12 12 11 11 8 0 1 4 3 1 10 10 10 8 6 -1 -3 -3 -3 -2 -1 1 2 2 1 -1 1 2 3 3 4 5 6 6 6 6 6 6 6 6
13 12 14 12 12 13 13 11 11 4 4 8 10 11 11 12 9 4 1 1 0 -2 -2 1 1 2 4 5 5 5 6 6 7 7 7 7 7 8 8 8 8 8 8
12 12 13 13 12 13 12 13 13 13 11 11 11 11 11 10 7 5 4 4 2 1 0 2 5 6 7 8 8 8 8 8 8 9 9 9 9 9 8 9 9 9 9
12 12 13 13 12 12 13 14 12 12 12 12 12 11 11 10 9 7 6 6 5 2 2 4 7 8 9 9 10 10 9 9 10 10 10 10 10 10 10 10 10 10 10
9 12 13 13 13 13 12 12 12 12 12 12 13 12 10 10 9 8 7 6 7 6 8 9 9 10 10 10 10 10 11 11 11 11 11 12 11 11 11 11 10 9 10
12 11 13 13 13 13 13 12 12 12 12 12 13 12 11 8 8 8 9 9 10 10 11 11 11 11 11 11 11 11 11 11 10 11 12 12 12 12 11 10 11 9 10
10 12 12 13 12 12 13 13 12 12 13 12 12 12 12 12 10 10 9 10 10 11 12 12 11 12 12 12 11 11 11 11 11 11 11 10 11 11 11 9 9 9 10
12 11 12 12 12 13 12 12 12 13 13 12 11 12 13 12 13 12 12 12 12 13 12 13 13 12 12 11 11 11 11 12 11 9 7 7 9 9 9 9 8 9 8
10 10 12 12 12 12 13 12 12 12 13 12 13 14 13 14 14 12 12 12 12 12 13 13 12 12 12 12 12 11 10 10 9 8 6 7 10 10 8 9 7 8 7
10 10 11 12 12 12 12 12 12 11 12 12 12 13 13 13 13 13 13 13 13 13 12 12 12 12 12 11 10 10 9 9 8 7 7 8 8 9 8 8 8 6 7
4 9 10 10 10 11 11 11 13 13 13 12 11 11 12 12 13 11 10 8 8 11 12 12 11 11 11 10 10 10 10 9 9 8 9 9 9 8 8 8 6 6 5
3 3 6 11 10 9 10 11 10 10 9 9 9 9 10 11 10 10 9 8 4 1 0 1 1 3 3 2 3 4 9 10 9 8 8 7 8 8 9 8 7 7 7
3 3 2 1 10 10 9 10 9 9 10 11 11 11 10 8 7 2 -1 -2 -2 -2 -2 -2 -2 -2 -1 -0 0 -1 1 2 6 8 9 6 7 8 8 8 8 8 5
3 3 2 0 -1 8 10 10 8 8 7 8 8 8 8 5 -1 -2 -2 -2 -3 -3 -3 -2 -2 -1 -1 -0 -0 -0 1 2 6 8 9 8 7 8 9 8 8 7 5